KC8P Weather Reports


Display with metric or nautical units.
time (UTC)temp
F
wind
direction
speed
MPH
gust
MPH
rain 1hr
in
rain 24hr
in
rain mn
in
humidity
%
barometer
mb
20260508124752 47 125 2.0 2.0 0.00 0.00 0.00 71 1012.1
20260508124646 47 142 2.0 2.0 0.00 0.00 0.00 70 1011.8
20260508124547 45 204 2.0 4.0 0.00 0.00 0.00 73 1012.1
20260508124542 47 145 1.0 2.0 0.00 0.00 0.00 71 1012.1
20260508124534 45 207 2.0 3.0 0.00 0.00 0.00 74 1012.1
20260508124530 45 189 1.0 4.0 0.00 0.00 0.00 72 1011.8
20260508124524 47 152 0.0 2.0 0.00 0.00 0.00 72 1012.1
20260508124519 47 202 0.0 2.0 0.00 0.00 0.00 71 1012.1
20260508124511 46 205 0.0 2.0 0.00 0.00 0.00 71 1012.1
20260508124246 46 177 2.0 2.0 0.00 0.00 0.00 71 1012.1
20260508124237 46 125 0.0 4.0 0.00 0.00 0.00 71 1012.1
20260508124016 46 147 0.0 4.0 0.00 0.00 0.00 71 1011.8
20260508124006 46 165 1.0 4.0 0.00 0.00 0.00 71 1011.8
20260508124002 46 147 1.0 4.0 0.00 0.00 0.00 72 1012.1
20260508123953 46 131 0.0 4.0 0.00 0.00 0.00 72 1012.1
20260508123730 46 170 0.0 4.0 0.00 0.00 0.00 72 1011.8
20260508123722 45 164 0.0 4.0 0.00 0.00 0.00 73 1012.1
20260508123459 45 189 1.0 4.0 0.00 0.00 0.00 72 1012.1
20260508123450 45 185 1.0 4.0 0.00 0.00 0.00 72 1011.8
20260508123441 45 210 2.0 4.0 0.00 0.00 0.00 72 1012.1
20260508123218 45 183 2.0 4.0 0.00 0.00 0.00 72 1012.1
20260508123210 45 214 2.0 4.0 0.00 0.00 0.00 73 1012.1
20260508122947 45 211 2.0 4.0 0.00 0.00 0.00 73 1012.1
20260508122939 45 217 2.0 3.0 0.00 0.00 0.00 73 1012.1
20260508122718 44 211 2.0 3.0 0.00 0.00 0.00 75 1012.1
20260508122714 45 238 2.0 3.0 0.00 0.00 0.00 73 1012.1
20260508122706 45 207 1.0 3.0 0.00 0.00 0.00 73 1011.8
20260508122657 45 196 2.0 3.0 0.00 0.00 0.00 75 1012.1
20260508122430 45 181 1.0 3.0 0.00 0.00 0.00 75 1012.1
20260508122422 45 186 1.0 3.0 0.00 0.00 0.00 75 1011.8
20260508122159 44 197 1.0 3.0 0.00 0.00 0.00 75 1012.1
20260508122150 44 183 1.0 3.0 0.00 0.00 0.00 75 1011.8
20260508121922 44 186 2.0 3.0 0.00 0.00 0.00 75 1012.1
20260508121816 44 204 1.0 3.0 0.00 0.00 0.00 76 1011.8
20260508121711 44 202 2.0 3.0 0.00 0.00 0.00 75 1012.1
20260508121655 44 177 2.0 3.0 0.00 0.00 0.00 76 1012.1
20260508121651 44 185 1.0 3.0 0.00 0.00 0.00 76 1011.8
20260508121643 44 189 1.0 3.0 0.00 0.00 0.00 76 1011.8
20260508121354 44 165 2.0 2.0 0.00 0.00 0.00 76 1012.1
20260508121249 44 173 0.0 2.0 0.00 0.00 0.00 77 1011.8
20260508121142 44 206 2.0 2.0 0.00 0.00 0.00 77 1011.8
20260508121037 44 188 1.0 2.0 0.00 0.00 0.00 78 1011.8
20260508120930 44 186 0.0 2.0 0.00 0.00 0.00 78 1011.8
20260508120917 44 187 0.0 2.0 0.00 0.00 0.00 78 1011.8
20260508120912 43 189 1.0 2.0 0.00 0.00 0.00 78 1011.8
20260508120908 43 190 1.0 2.0 0.00 0.00 0.00 78 1011.8
20260508120900 43 188 0.0 2.0 0.00 0.00 0.00 78 1011.8
20260508120637 43 188 1.0 2.0 0.00 0.00 0.00 77 1011.8
20260508120628 43 199 1.0 2.0 0.00 0.00 0.00 77 1011.8
20260508120403 43 189 1.0 2.0 0.00 0.00 0.00 78 1011.8
20260508120258 43 200 1.0 2.0 0.00 0.00 0.00 78 1011.8
20260508120152 43 203 2.0 2.0 0.00 0.00 0.00 78 1011.8
20260508120057 43 193 1.0 2.0 0.00 0.00 0.00 78 1011.8
20260508115939 42 199 0.0 2.0 0.00 0.00 0.00 79 1011.8
20260508115901 42 183 1.0 2.0 0.00 0.00 0.00 79 1011.8
20260508115834 42 199 1.0 2.0 0.00 0.00 0.00 79 1011.8
20260508115728 42 195 1.0 2.0 0.00 0.00 0.00 79 1011.8
20260508115622 42 194 1.0 2.0 0.00 0.00 0.00 79 1011.8
20260508115516 42 201 1.0 2.0 0.00 0.00 0.00 80 1011.8
20260508115410 42 193 1.0 2.0 0.00 0.00 0.00 80 1011.8
20260508115355 42 193 1.0 2.0 0.00 0.00 0.00 80 1011.8
20260508115306 42 212 2.0 2.0 0.00 0.00 0.00 81 1011.8
20260508115159 41 199 1.0 2.0 0.00 0.00 0.00 81 1011.8
20260508115051 41 200 1.0 2.0 0.00 0.00 0.00 82 1011.8
20260508114945 41 200 1.0 1.0 0.00 0.00 0.00 83 1011.4
20260508114846 40 201 0.0 1.0 0.00 0.00 0.00 84 1011.4
20260508114840 40 201 0.0 1.0 0.00 0.00 0.00 84 1011.8
20260508114734 40 202 1.0 1.0 0.00 0.00 0.00 85 1011.8
20260508114628 40 203 0.0 1.0 0.00 0.00 0.00 85 1011.4
20260508114523 39 207 0.0 0.0 0.00 0.00 0.00 86 1011.4
20260508114417 39 226 0.0 0.0 0.00 0.00 0.00 87 1011.4
20260508114339 39 284 0.0 0.0 0.00 0.00 0.00 88 1011.4
20260508114312 39 6 0.0 0.0 0.00 0.00 0.00 88 1011.4
20260508114206 39 6 0.0 0.0 0.00 0.00 0.00 89 1011.4
20260508114100 38 6 0.0 0.0 0.00 0.00 0.00 90 1011.4
20260508113954 38 6 0.0 0.0 0.00 0.00 0.00 91 1011.4
20260508113833 38 7 0.0 0.0 0.00 0.00 0.00 91 1011.4
20260508113743 38 7 0.0 0.0 0.00 0.00 0.00 92 1011.4
20260508113637 38 7 0.0 0.0 0.00 0.00 0.00 92 1011.4
20260508113531 37 6 0.0 0.0 0.00 0.00 0.00 92 1011.8
20260508113426 37 6 0.0 0.0 0.00 0.00 0.00 92 1011.4
20260508113320 37 6 0.0 0.0 0.00 0.00 0.00 92 1011.4
20260508113215 37 6 0.0 0.0 0.00 0.00 0.00 92 1011.4
20260508113109 37 6 0.0 0.0 0.00 0.00 0.00 92 1011.4
20260508113005 37 6 0.0 0.0 0.00 0.00 0.00 92 1011.1
20260508112858 37 6 0.0 0.0 0.00 0.00 0.00 92 1011.4
20260508112821 37 6 0.0 0.0 0.00 0.00 0.00 92 1011.4
20260508112752 37 6 0.0 0.0 0.00 0.00 0.00 92 1011.4
20260508112646 37 6 0.0 0.0 0.00 0.00 0.00 92 1011.4
20260508112541 37 6 0.0 0.0 0.00 0.00 0.00 92 1011.4
20260508112435 37 6 0.0 0.0 0.00 0.00 0.00 92 1011.4
20260508112314 37 6 0.0 0.0 0.00 0.00 0.00 92 1011.4
20260508112224 37 6 0.0 0.0 0.00 0.00 0.00 92 1011.4
20260508112118 36 6 0.0 0.0 0.00 0.00 0.00 92 1011.4
20260508112012 36 6 0.0 0.0 0.00 0.00 0.00 92 1011.4
20260508111907 36 6 0.0 0.0 0.00 0.00 0.00 92 1011.1
20260508111807 36 6 0.0 0.0 0.00 0.00 0.00 92 1011.4
20260508111802 36 6 0.0 0.0 0.00 0.00 0.00 92 1011.4
20260508111653 36 6 0.0 0.0 0.00 0.00 0.00 92 1011.4
20260508111550 36 6 0.0 0.0 0.00 0.00 0.00 92 1011.4
20260508111441 36 6 0.0 0.0 0.00 0.00 0.00 92 1011.1
20260508111335 36 6 0.0 0.0 0.00 0.00 0.00 92 1011.1
20260508111230 36 6 0.0 0.0 0.00 0.00 0.00 92 1011.1
20260508111124 36 6 0.0 0.0 0.00 0.00 0.00 92 1011.1
20260508111018 36 6 0.0 0.0 0.00 0.00 0.00 92 1011.4
20260508110913 36 6 0.0 0.0 0.00 0.00 0.00 92 1011.4
20260508110810 36 6 0.0 0.0 0.00 0.00 0.00 92 1011.4
20260508110752 36 6 0.0 0.0 0.00 0.00 0.00 93 1011.4
20260508110701 36 6 0.0 0.0 0.00 0.00 0.00 92 1011.4
20260508110556 36 6 0.0 0.0 0.00 0.00 0.00 92 1011.4
20260508110450 36 6 0.0 0.0 0.00 0.00 0.00 93 1011.4
20260508110345 35 6 0.0 0.0 0.00 0.00 0.00 93 1011.4
20260508110239 35 6 0.0 0.0 0.00 0.00 0.00 93 1011.4
20260508110133 35 6 0.0 0.0 0.00 0.00 0.00 93 1011.4
20260508110027 35 6 0.0 0.0 0.00 0.00 0.00 93 1011.4
20260508105922 35 6 0.0 0.0 0.00 0.00 0.00 92 1011.4
20260508105817 35 6 0.0 0.0 0.00 0.00 0.00 92 1011.4
20260508105711 34 6 0.0 0.0 0.00 0.00 0.00 92 1011.4
20260508105602 34 6 0.0 0.0 0.00 0.00 0.00 92 1011.4
20260508105458 34 6 0.0 0.0 0.00 0.00 0.00 92 1011.4
20260508105352 34 6 0.0 0.0 0.00 0.00 0.00 92 1011.4
20260508105231 35 6 0.0 0.0 0.00 0.00 0.00 92 1011.4
20260508105140 35 6 0.0 0.0 0.00 0.00 0.00 92 1011.1
20260508105035 35 6 0.0 0.0 0.00 0.00 0.00 92 1011.1
20260508104929 35 6 0.0 0.0 0.00 0.00 0.00 92 1011.4
20260508104823 35 6 0.0 0.0 0.00 0.00 0.00 92 1011.4
20260508104718 35 6 0.0 0.0 0.00 0.00 0.00 92 1011.4
20260508104612 34 6 0.0 0.0 0.00 0.00 0.00 92 1011.4
20260508104506 34 6 0.0 0.0 0.00 0.00 0.00 92 1011.4
20260508104400 35 6 0.0 0.0 0.00 0.00 0.00 92 1011.4
20260508104225 35 6 0.0 0.0 0.00 0.00 0.00 92 1011.8
20260508104119 35 6 0.0 0.0 0.00 0.00 0.00 92 1011.8
20260508104013 35 6 0.0 0.0 0.00 0.00 0.00 92 1011.4
20260508103907 35 6 0.0 0.0 0.00 0.00 0.00 92 1011.4
20260508103801 35 6 0.0 0.0 0.00 0.00 0.00 92 1011.4
20260508103713 35 6 0.0 0.0 0.00 0.00 0.00 92 1011.4
20260508103656 35 6 0.0 0.0 0.00 0.00 0.00 92 1011.4
20260508103549 35 6 0.0 0.0 0.00 0.00 0.00 91 1011.4
20260508103443 35 6 0.0 0.0 0.00 0.00 0.00 91 1011.4
20260508103338 35 6 0.0 0.0 0.00 0.00 0.00 91 1011.4
20260508103205 35 6 0.0 0.0 0.00 0.00 0.00 91 1011.4
20260508103126 35 6 0.0 0.0 0.00 0.00 0.00 91 1011.4
20260508103021 35 6 0.0 0.0 0.00 0.00 0.00 91 1011.4
20260508102915 35 6 0.0 0.0 0.00 0.00 0.00 91 1011.4
20260508102810 35 6 0.0 0.0 0.00 0.00 0.00 91 1011.1
20260508102704 35 6 0.0 0.0 0.00 0.00 0.00 91 1011.1
20260508102558 35 6 0.0 0.0 0.00 0.00 0.00 91 1011.8
20260508102453 35 6 0.0 0.0 0.00 0.00 0.00 91 1011.8
20260508102339 35 6 0.0 0.0 0.00 0.00 0.00 91 1011.4
20260508102233 35 6 0.0 0.0 0.00 0.00 0.00 91 1011.4
20260508102156 35 6 0.0 0.0 0.00 0.00 0.00 91 1011.4
20260508102127 35 6 0.0 0.0 0.00 0.00 0.00 91 1011.4
20260508102021 35 6 0.0 0.0 0.00 0.00 0.00 91 1011.4
20260508101916 35 6 0.0 0.0 0.00 0.00 0.00 90 1011.4
20260508101811 35 6 0.0 0.0 0.00 0.00 0.00 90 1011.4
20260508101705 35 6 0.0 0.0 0.00 0.00 0.00 90 1011.4
20260508101650 35 6 0.0 0.0 0.00 0.00 0.00 90 1011.4
20260508101558 35 6 0.0 0.0 0.00 0.00 0.00 90 1011.4
20260508101454 35 6 0.0 0.0 0.00 0.00 0.00 90 1011.8
20260508101348 35 6 0.0 0.0 0.00 0.00 0.00 90 1011.4
20260508101242 35 6 0.0 0.0 0.00 0.00 0.00 90 1011.8
20260508101144 35 6 0.0 0.0 0.00 0.00 0.00 90 1011.8
20260508101137 35 6 0.0 0.0 0.00 0.00 0.00 90 1011.4
20260508101031 35 6 0.0 0.0 0.00 0.00 0.00 90 1011.4
20260508100925 35 6 0.0 0.0 0.00 0.00 0.00 90 1011.4
20260508100820 35 6 0.0 0.0 0.00 0.00 0.00 90 1011.4
20260508100715 35 6 0.0 0.0 0.00 0.00 0.00 90 1011.4
20260508100607 35 6 0.0 0.0 0.00 0.00 0.00 90 1011.4
20260508100501 35 6 0.0 0.0 0.00 0.00 0.00 90 1011.4
20260508100356 35 6 0.0 0.0 0.00 0.00 0.00 89 1011.4
20260508100250 35 6 0.0 0.0 0.00 0.00 0.00 89 1011.1
20260508100144 35 6 0.0 0.0 0.00 0.00 0.00 89 1011.1
20260508100129 36 6 0.0 0.0 0.00 0.00 0.00 89 1011.1
20260508100038 36 6 0.0 0.0 0.00 0.00 0.00 89 1011.4
20260508095932 36 6 0.0 0.0 0.00 0.00 0.00 89 1011.4
20260508095826 36 6 0.0 0.0 0.00 0.00 0.00 89 1011.1
20260508095721 36 6 0.0 0.0 0.00 0.00 0.00 89 1011.4
20260508095615 36 6 0.0 0.0 0.00 0.00 0.00 89 1011.4
20260508095511 36 6 0.0 0.0 0.00 0.00 0.00 89 1011.4
20260508095407 36 6 0.0 0.0 0.00 0.00 0.00 89 1011.4
20260508095258 36 6 0.0 0.0 0.00 0.00 0.00 89 1011.1
20260508095152 36 6 0.0 0.0 0.00 0.00 0.00 89 1011.4
20260508095116 36 6 0.0 0.0 0.00 0.00 0.00 89 1011.4
20260508095048 36 6 0.0 0.0 0.00 0.00 0.00 89 1011.4
20260508094955 36 6 0.0 0.0 0.00 0.00 0.00 89 1011.4
20260508094836 36 6 0.0 0.0 0.00 0.00 0.00 89 1011.4
20260508094730 36 6 0.0 0.0 0.00 0.00 0.00 89 1011.4
20260508094610 36 6 0.0 0.0 0.00 0.00 0.00 89 1011.4
20260508094518 36 6 0.0 0.0 0.00 0.00 0.00 89 1011.4
20260508094414 36 7 0.0 0.0 0.00 0.00 0.00 89 1011.4
20260508094308 36 7 0.0 0.0 0.00 0.00 0.00 89 1011.8
20260508094203 36 7 0.0 0.0 0.00 0.00 0.00 89 1011.8
20260508094103 36 7 0.0 0.0 0.00 0.00 0.00 88 1011.8
20260508094055 36 7 0.0 0.0 0.00 0.00 0.00 88 1011.8
20260508093949 36 7 0.0 0.0 0.00 0.00 0.00 88 1011.4
20260508093844 36 7 0.0 0.0 0.00 0.00 0.00 88 1011.8
20260508093739 37 7 0.0 0.0 0.00 0.00 0.00 88 1011.8
20260508093633 37 7 0.0 0.0 0.00 0.00 0.00 88 1011.8
20260508093527 37 7 0.0 0.0 0.00 0.00 0.00 88 1011.8
20260508093422 37 7 0.0 0.0 0.00 0.00 0.00 88 1011.8
20260508093315 37 7 0.0 0.0 0.00 0.00 0.00 88 1011.8
20260508093210 37 7 0.0 0.0 0.00 0.00 0.00 88 1011.4
20260508093049 37 7 0.0 0.0 0.00 0.00 0.00 88 1011.8
20260508092959 37 7 0.0 0.0 0.00 0.00 0.00 88 1011.4
20260508092904 37 7 0.0 0.0 0.00 0.00 0.00 88 1011.4
20260508092759 37 7 0.0 0.0 0.00 0.00 0.00 88 1011.4
20260508092653 37 7 0.0 0.0 0.00 0.00 0.00 88 1011.4
20260508092547 37 7 0.0 0.0 0.00 0.00 0.00 88 1011.4
20260508092441 37 7 0.0 0.0 0.00 0.00 0.00 88 1011.8
20260508092336 37 7 0.0 0.0 0.00 0.00 0.00 88 1011.4
20260508092231 37 7 0.0 0.0 0.00 0.00 0.00 88 1011.8
20260508092116 37 7 0.0 0.0 0.00 0.00 0.00 88 1011.8
20260508092050 37 7 0.0 0.0 0.00 0.00 0.00 88 1011.8
20260508092011 37 7 0.0 0.0 0.00 0.00 0.00 88 1011.4
20260508091905 37 7 0.0 0.0 0.00 0.00 0.00 87 1011.8
20260508091759 37 7 0.0 0.0 0.00 0.00 0.00 87 1011.4
20260508091735 40 153 0.0 1.0 0.00 0.00 0.00 81 1011.1
20260508091731 39 7 0.0 1.0 0.00 0.00 0.00 84 1011.4
20260508091726 37 7 0.0 0.0 0.00 0.00 0.00 86 1011.4
20260508091722 38 7 0.0 0.0 0.00 0.00 0.00 86 1011.8
20260508091718 37 7 0.0 0.0 0.00 0.00 0.00 87 1011.4
20260508091703 37 7 0.0 0.0 0.00 0.00 0.00 87 1011.8
20260508091439 37 7 0.0 0.0 0.00 0.00 0.00 87 1011.8
20260508091431 37 7 0.0 0.0 0.00 0.00 0.00 87 1011.8
20260508091410 37 7 0.0 0.0 0.00 0.00 0.00 87 1011.4
20260508091401 37 7 0.0 0.0 0.00 0.00 0.00 87 1011.8
20260508091136 38 7 0.0 0.0 0.00 0.00 0.00 86 1011.4
20260508090914 38 6 0.0 1.0 0.00 0.00 0.00 86 1011.8
20260508090911 38 7 0.0 0.0 0.00 0.00 0.00 86 1011.8
20260508090902 38 7 0.0 0.0 0.00 0.00 0.00 86 1011.8
20260508090853 38 7 0.0 0.0 0.00 0.00 0.00 86 1011.4
20260508090842 38 7 0.0 0.0 0.00 0.00 0.00 86 1011.8
20260508090623 38 7 0.0 0.0 0.00 0.00 0.00 86 1011.4
20260508090403 38 7 0.0 1.0 0.00 0.00 0.00 86 1011.4
20260508090355 38 7 0.0 1.0 0.00 0.00 0.00 86 1011.8
20260508090346 38 6 0.0 1.0 0.00 0.00 0.00 86 1011.4
20260508090125 38 6 0.0 1.0 0.00 0.00 0.00 86 1011.8
20260508090103 38 6 0.0 1.0 0.00 0.00 0.00 86 1011.8
20260508085836 38 6 0.0 1.0 0.00 0.00 0.00 86 1011.8
20260508085827 38 6 0.0 1.0 0.00 0.00 0.00 86 1011.8
20260508085551 39 6 0.0 1.0 0.00 0.00 0.00 85 1011.8
20260508085547 39 6 0.0 1.0 0.00 0.00 0.00 85 1011.8
20260508085538 39 6 1.0 1.0 0.00 0.00 0.00 85 1011.4
20260508085315 39 7 0.0 1.0 0.00 0.00 0.00 84 1011.8
20260508085307 39 7 0.0 1.0 0.00 0.00 0.00 84 1011.8
20260508085255 39 7 0.0 1.0 0.00 0.00 0.00 84 1011.4
20260508085036 39 7 0.0 1.0 0.00 0.00 0.00 84 1011.4
20260508084815 39 7 0.0 1.0 0.00 0.00 0.00 83 1011.8
20260508084806 39 7 0.0 1.0 0.00 0.00 0.00 83 1011.8
20260508084757 39 7 0.0 1.0 0.00 0.00 0.00 83 1011.8
20260508084532 39 7 0.0 1.0 0.00 0.00 0.00 83 1011.8
20260508084528 40 7 0.0 1.0 0.00 0.00 0.00 82 1011.8
20260508084520 40 7 1.0 1.0 0.00 0.00 0.00 82 1011.8
20260508084252 40 46 1.0 1.0 0.00 0.00 0.00 81 1011.8
20260508084243 40 153 0.0 1.0 0.00 0.00 0.00 81 1011.8
20260508084235 40 153 0.0 0.0 0.00 0.00 0.00 81 1011.4
20260508084009 40 153 0.0 0.0 0.00 0.00 0.00 81 1011.4
20260508084006 40 153 0.0 0.0 0.00 0.00 0.00 81 1011.8
20260508083957 40 153 0.0 0.0 0.00 0.00 0.00 81 1011.8
20260508083733 40 153 0.0 0.0 0.00 0.00 0.00 81 1011.4
20260508083724 40 153 0.0 1.0 0.00 0.00 0.00 81 1011.4
20260508083713 40 153 0.0 1.0 0.00 0.00 0.00 81 1011.1
20260508083355 40 153 0.0 1.0 0.00 0.00 0.00 80 1011.4
20260508083248 40 153 0.0 1.0 0.00 0.00 0.00 80 1011.4
20260508083141 40 153 0.0 1.0 0.00 0.00 0.00 80 1011.4
20260508083035 40 153 0.0 1.0 0.00 0.00 0.00 81 1011.8
20260508082930 40 153 0.0 1.0 0.00 0.00 0.00 81 1011.8
20260508082824 40 153 0.0 1.0 0.00 0.00 0.00 82 1011.8
20260508082719 40 153 0.0 1.0 0.00 0.00 0.00 82 1011.8
20260508082614 40 153 0.0 1.0 0.00 0.00 0.00 82 1011.8
20260508082508 40 154 0.0 0.0 0.00 0.00 0.00 82 1011.8
20260508082442 40 154 0.0 1.0 0.00 0.00 0.00 82 1011.8
20260508082403 40 154 0.0 1.0 0.00 0.00 0.00 82 1011.8
20260508082257 40 154 0.0 1.0 0.00 0.00 0.00 82 1011.8
20260508082152 40 154 0.0 1.0 0.00 0.00 0.00 82 1011.8
20260508082045 40 153 0.0 1.0 0.00 0.00 0.00 82 1011.8
20260508081940 40 153 0.0 1.0 0.00 0.00 0.00 81 1011.8
20260508081833 40 153 0.0 1.0 0.00 0.00 0.00 81 1011.8
20260508081729 40 153 0.0 1.0 0.00 0.00 0.00 81 1011.8
20260508081623 40 153 0.0 1.0 0.00 0.00 0.00 81 1011.8
20260508081517 40 153 0.0 1.0 0.00 0.00 0.00 81 1011.8
20260508081429 40 139 0.0 1.0 0.00 0.00 0.00 81 1011.8
20260508081412 40 50 0.0 1.0 0.00 0.00 0.00 81 1011.8
20260508081307 41 49 0.0 1.0 0.00 0.00 0.00 81 1011.8
20260508081200 41 49 0.0 1.0 0.00 0.00 0.00 80 1011.8
20260508081054 40 52 0.0 1.0 0.00 0.00 0.00 80 1011.8
20260508080923 41 52 1.0 1.0 0.00 0.00 0.00 80 1011.8
20260508080845 41 67 1.0 1.0 0.00 0.00 0.00 80 1011.8
20260508080738 41 69 0.0 2.0 0.00 0.00 0.00 80 1011.4
20260508080632 41 96 1.0 2.0 0.00 0.00 0.00 80 1011.4
20260508080526 41 172 0.0 2.0 0.00 0.00 0.00 80 1011.8
20260508080420 41 172 0.0 2.0 0.00 0.00 0.00 80 1011.8
20260508080315 41 210 0.0 3.0 0.00 0.00 0.00 80 1011.8
20260508080210 41 233 0.0 3.0 0.00 0.00 0.00 80 1011.8
20260508080105 41 220 0.0 3.0 0.00 0.00 0.00 80 1011.4
20260508075958 41 190 0.0 3.0 0.00 0.00 0.00 80 1011.4
20260508075909 41 189 0.0 3.0 0.00 0.00 0.00 81 1011.8
20260508075853 40 189 1.0 3.0 0.00 0.00 0.00 81 1011.8
20260508075747 40 146 0.0 3.0 0.00 0.00 0.00 82 1011.4
20260508075641 40 158 1.0 3.0 0.00 0.00 0.00 82 1011.4
20260508075535 40 253 1.0 3.0 0.00 0.00 0.00 82 1011.8
20260508075429 40 262 1.0 3.0 0.00 0.00 0.00 83 1011.4
20260508075404 40 311 2.0 3.0 0.00 0.00 0.00 83 1011.4
20260508075324 40 324 2.0 3.0 0.00 0.00 0.00 83 1011.4
20260508075218 40 279 2.0 3.0 0.00 0.00 0.00 83 1011.4
20260508075114 40 98 0.0 3.0 0.00 0.00 0.00 83 1011.4
20260508075007 40 98 2.0 3.0 0.00 0.00 0.00 83 1011.1
20260508074902 40 109 1.0 3.0 0.00 0.00 0.00 82 1011.1
20260508074756 40 99 1.0 3.0 0.00 0.00 0.00 82 1011.1
20260508074651 40 98 2.0 3.0 0.00 0.00 0.00 82 1011.1
20260508074545 40 99 2.0 3.0 0.00 0.00 0.00 82 1011.1
20260508074439 40 129 0.0 0.0 0.00 0.00 0.00 82 1011.1
20260508074350 40 147 0.0 0.0 0.00 0.00 0.00 82 1011.1
20260508074323 40 147 0.0 0.0 0.00 0.00 0.00 82 1011.4
20260508074217 40 146 0.0 0.0 0.00 0.00 0.00 82 1011.4
20260508074112 40 145 0.0 0.0 0.00 0.00 0.00 82 1011.4
20260508074006 40 141 0.0 0.0 0.00 0.00 0.00 82 1011.1
20260508073833 40 122 0.0 0.0 0.00 0.00 0.00 82 1011.1
20260508073754 40 122 0.0 0.0 0.00 0.00 0.00 82 1011.1
20260508073648 40 122 0.0 0.0 0.00 0.00 0.00 82 1011.1
20260508073544 40 121 0.0 0.0 0.00 0.00 0.00 81 1011.8
20260508073438 40 122 0.0 0.0 0.00 0.00 0.00 81 1011.1
20260508073332 41 122 0.0 0.0 0.00 0.00 0.00 81 1011.4
20260508073226 41 122 0.0 0.0 0.00 0.00 0.00 81 1011.4
20260508073120 41 121 0.0 0.0 0.00 0.00 0.00 81 1011.4
20260508073014 41 121 0.0 0.0 0.00 0.00 0.00 81 1011.4
20260508072908 41 121 0.0 0.0 0.00 0.00 0.00 81 1011.4
20260508072820 41 121 0.0 0.0 0.00 0.00 0.00 81 1011.4
20260508072802 41 121 0.0 0.0 0.00 0.00 0.00 81 1011.4
20260508072656 41 121 0.0 0.0 0.00 0.00 0.00 81 1011.4
20260508072551 41 121 0.0 0.0 0.00 0.00 0.00 81 1011.4
20260508072445 41 121 0.0 0.0 0.00 0.00 0.00 80 1011.8
20260508072313 41 121 0.0 0.0 0.00 0.00 0.00 80 1011.8
20260508072234 41 121 0.0 0.0 0.00 0.00 0.00 80 1011.8
20260508072129 41 121 0.0 0.0 0.00 0.00 0.00 80 1011.8
20260508072022 41 121 0.0 0.0 0.00 0.00 0.00 80 1011.4
20260508071918 41 121 0.0 0.0 0.00 0.00 0.00 80 1011.8
20260508071812 41 122 0.0 0.0 0.00 0.00 0.00 80 1011.4
20260508071706 41 122 0.0 0.0 0.00 0.00 0.00 80 1011.8
20260508071600 42 122 0.0 0.0 0.00 0.00 0.00 80 1011.8
20260508071454 42 122 0.0 0.0 0.00 0.00 0.00 80 1011.8
20260508071349 42 122 0.0 0.0 0.00 0.00 0.00 80 1011.4
20260508071301 42 121 0.0 0.0 0.00 0.00 0.00 80 1011.8
20260508071243 42 121 0.0 0.0 0.00 0.00 0.00 80 1011.8
20260508071137 42 122 0.0 0.0 0.00 0.00 0.00 80 1011.4
20260508071032 42 122 0.0 0.0 0.00 0.00 0.00 80 1011.8
20260508070927 42 120 0.0 0.0 0.00 0.00 0.00 80 1011.8
20260508070834 42 122 0.0 0.0 0.00 0.00 0.00 81 1011.4
20260508070755 42 106 0.0 0.0 0.00 0.00 0.00 81 1011.4
20260508070715 42 44 0.0 0.0 0.00 0.00 0.00 81 1011.4
20260508070623 42 41 0.0 0.0 0.00 0.00 0.00 81 1011.8
20260508070504 42 42 0.0 0.0 0.00 0.00 0.00 81 1011.8
20260508070358 42 41 0.0 0.0 0.00 0.00 0.00 81 1011.8
20260508070253 42 41 0.0 0.0 0.00 0.00 0.00 81 1011.8
20260508070147 42 41 0.0 0.0 0.00 0.00 0.00 81 1011.4
20260508070041 41 41 0.0 0.0 0.00 0.00 0.00 80 1011.8
20260508065935 41 34 0.0 0.0 0.00 0.00 0.00 80 1011.8
20260508065829 41 33 0.0 0.0 0.00 0.00 0.00 81 1011.8
20260508065742 41 33 0.0 0.0 0.00 0.00 0.00 80 1011.8
20260508065724 41 33 0.0 0.0 0.00 0.00 0.00 81 1012.1
20260508065618 41 33 0.0 0.0 0.00 0.00 0.00 81 1012.1
20260508065513 41 33 0.0 0.0 0.00 0.00 0.00 81 1012.1
20260508065420 41 33 0.0 0.0 0.00 0.00 0.00 81 1011.8
20260508065301 41 33 0.0 0.0 0.00 0.00 0.00 81 1011.8
20260508065235 41 34 0.0 0.0 0.00 0.00 0.00 81 1011.8
20260508065208 41 34 0.0 0.0 0.00 0.00 0.00 81 1011.8
20260508065050 41 33 0.0 0.0 0.00 0.00 0.00 81 1011.8
20260508064944 41 34 0.0 0.0 0.00 0.00 0.00 81 1011.8
20260508064838 41 34 0.0 0.0 0.00 0.00 0.00 81 1011.8
20260508064733 41 34 0.0 0.0 0.00 0.00 0.00 81 1011.8
20260508064627 41 34 0.0 0.0 0.00 0.00 0.00 81 1011.8
20260508064523 42 34 0.0 0.0 0.00 0.00 0.00 80 1011.8
20260508064416 42 34 0.0 0.0 0.00 0.00 0.00 80 1011.8
20260508064311 42 34 0.0 0.0 0.00 0.00 0.00 80 1011.8
20260508064222 42 34 0.0 0.0 0.00 0.00 0.00 80 1011.8
20260508064205 42 34 0.0 0.0 0.00 0.00 0.00 80 1011.8
20260508064059 42 34 0.0 0.0 0.00 0.00 0.00 80 1011.8
20260508063954 42 34 0.0 0.0 0.00 0.00 0.00 80 1011.8
20260508063849 42 34 0.0 0.0 0.00 0.00 0.00 80 1011.8
20260508063743 42 37 0.0 0.0 0.00 0.00 0.00 80 1011.8
20260508063717 42 41 0.0 0.0 0.00 0.00 0.00 80 1011.8
20260508063637 42 41 0.0 0.0 0.00 0.00 0.00 80 1011.8
20260508063532 42 41 0.0 0.0 0.00 0.00 0.00 80 1011.8
20260508063426 42 41 0.0 0.0 0.00 0.00 0.00 80 1011.8
20260508063320 42 41 0.0 0.0 0.00 0.00 0.00 80 1011.4
20260508063215 42 41 0.0 0.0 0.00 0.00 0.00 80 1011.8
20260508063121 42 41 0.0 0.0 0.00 0.00 0.00 80 1011.8
20260508063005 42 41 0.0 0.0 0.00 0.00 0.00 80 1011.8
20260508062858 42 40 0.0 0.0 0.00 0.00 0.00 80 1011.8
20260508062752 42 41 0.0 0.0 0.00 0.00 0.00 80 1011.8
20260508062703 42 41 0.0 0.0 0.00 0.00 0.00 80 1011.8
20260508062646 42 40 0.0 0.0 0.00 0.00 0.00 80 1011.8
20260508062539 42 54 0.0 0.0 0.00 0.00 0.00 80 1011.8
20260508062433 42 48 0.0 0.0 0.00 0.00 0.00 80 1011.8
20260508062342 42 36 0.0 0.0 0.00 0.00 0.00 80 1011.8
20260508062222 42 31 0.0 0.0 0.00 0.00 0.00 79 1012.1
20260508062156 42 31 0.0 0.0 0.00 0.00 0.00 79 1012.1
20260508062118 42 43 0.0 0.0 0.00 0.00 0.00 79 1012.1
20260508062010 42 55 0.0 0.0 0.00 0.00 0.00 79 1011.8
20260508061906 42 50 0.0 0.0 0.00 0.00 0.00 78 1011.8
20260508061800 42 25 0.0 0.0 0.00 0.00 0.00 78 1011.8
20260508061654 42 321 0.0 0.0 0.00 0.00 0.00 78 1011.8
20260508061546 42 33 0.0 2.0 0.00 0.00 0.00 79 1011.8
20260508061441 42 73 0.0 2.0 0.00 0.00 0.00 79 1011.8
20260508061334 43 73 0.0 2.0 0.00 0.00 0.00 79 1011.8
20260508061228 43 73 0.0 2.0 0.00 0.00 0.00 78 1011.4
20260508061123 43 73 0.0 4.0 0.00 0.00 0.00 78 1011.4
20260508061018 43 73 0.0 4.0 0.00 0.00 0.00 78 1011.8
20260508060911 43 73 0.0 4.0 0.00 0.00 0.00 78 1011.8
20260508060807 43 82 0.0 4.0 0.00 0.00 0.00 78 1011.4
20260508060702 43 83 0.0 4.0 0.00 0.00 0.00 78 1011.8
20260508060631 43 80 0.0 4.0 0.00 0.00 0.00 78 1011.8
20260508060552 43 99 1.0 4.0 0.00 0.00 0.00 77 1011.8
20260508060447 43 125 0.0 4.0 0.00 0.00 0.00 78 1011.8
20260508060342 43 67 0.0 4.0 0.00 0.00 0.00 77 1012.1
20260508060236 43 349 2.0 4.0 0.00 0.00 0.00 77 1012.1
20260508060129 43 319 2.0 3.0 0.00 0.00 0.00 77 1012.4
20260508060024 43 320 3.0 3.0 0.00 0.00 0.00 78 1012.1
20260508055919 44 336 2.0 2.0 0.00 0.00 0.00 78 1011.8
20260508055813 44 345 1.0 2.0 0.00 0.00 0.00 79 1011.8
20260508055707 44 27 0.0 2.0 0.00 0.00 0.00 78 1011.8
20260508055619 44 27 1.0 2.0 0.00 0.00 0.00 78 1011.8
20260508055601 44 27 1.0 1.0 0.00 0.00 0.00 78 1011.8
20260508055455 44 21 1.0 1.0 0.00 0.00 0.00 77 1011.8
20260508055349 44 73 0.0 1.0 0.00 0.00 0.00 77 1011.4
20260508055243 44 119 0.0 0.0 0.00 0.00 0.00 77 1011.8
20260508055112 44 119 0.0 0.0 0.00 0.00 0.00 77 1011.8
20260508055032 44 119 0.0 0.0 0.00 0.00 0.00 77 1011.8
20260508054927 44 119 0.0 0.0 0.00 0.00 0.00 77 1011.8
20260508054821 44 119 0.0 1.0 0.00 0.00 0.00 77 1011.8
20260508054715 44 113 0.0 1.0 0.00 0.00 0.00 77 1011.8
20260508054610 44 113 0.0 3.0 0.00 0.00 0.00 77 1011.8
20260508054504 44 113 0.0 3.0 0.00 0.00 0.00 77 1011.8
20260508054359 44 104 0.0 3.0 0.00 0.00 0.00 78 1011.8
20260508054253 44 113 0.0 3.0 0.00 0.00 0.00 79 1011.8
20260508054148 44 73 0.0 3.0 0.00 0.00 0.00 80 1011.4
20260508054100 44 62 0.0 3.0 0.00 0.00 0.00 80 1011.8
20260508054042 44 61 0.0 3.0 0.00 0.00 0.00 80 1011.8
20260508053936 44 60 0.0 3.0 0.00 0.00 0.00 80 1011.8
20260508053830 44 59 0.0 3.0 0.00 0.00 0.00 81 1011.8
20260508053725 44 58 0.0 3.0 0.00 0.00 0.00 82 1011.8
20260508053619 44 28 0.0 1.0 0.00 0.00 0.00 82 1011.8
20260508053553 44 27 0.0 1.0 0.00 0.00 0.00 82 1011.8
20260508053513 44 19 0.0 1.0 0.00 0.00 0.00 81 1011.8
20260508053407 44 17 0.0 1.0 0.00 0.00 0.00 81 1012.1
20260508053301 44 10 0.0 1.0 0.00 0.00 0.00 80 1012.1
20260508053155 44 11 0.0 1.0 0.00 0.00 0.00 80 1012.1
20260508053049 44 349 1.0 1.0 0.00 0.00 0.00 79 1012.1
20260508052943 44 337 1.0 1.0 0.00 0.00 0.00 78 1012.1
20260508052837 44 343 0.0 1.0 0.00 0.00 0.00 78 1012.1
20260508052732 44 343 0.0 0.0 0.00 0.00 0.00 78 1011.8
20260508052627 44 342 0.0 0.0 0.00 0.00 0.00 77 1012.1
20260508052533 44 326 0.0 0.0 0.00 0.00 0.00 77 1011.8
20260508052415 44 193 0.0 0.0 0.00 0.00 0.00 77 1012.1
20260508052309 45 193 0.0 0.0 0.00 0.00 0.00 76 1011.8
20260508052206 45 193 0.0 0.0 0.00 0.00 0.00 77 1012.1
20260508052100 45 196 0.0 0.0 0.00 0.00 0.00 77 1011.8
20260508052033 45 196 0.0 0.0 0.00 0.00 0.00 76 1011.8
20260508051954 45 196 0.0 0.0 0.00 0.00 0.00 76 1011.8
20260508051848 45 196 0.0 0.0 0.00 0.00 0.00 76 1011.8
20260508051742 45 196 0.0 0.0 0.00 0.00 0.00 76 1011.8
20260508051637 45 193 0.0 1.0 0.00 0.00 0.00 76 1011.8
20260508051531 45 193 0.0 1.0 0.00 0.00 0.00 76 1011.8
20260508051426 45 193 0.0 2.0 0.00 0.00 0.00 76 1011.8
20260508051320 45 190 0.0 2.0 0.00 0.00 0.00 76 1011.8
20260508051214 45 190 0.0 2.0 0.00 0.00 0.00 76 1011.8
20260508051136 44 205 0.0 1.0 0.00 0.00 0.00 75 1011.8
20260508051132 44 202 0.0 0.0 0.00 0.00 0.00 74 1012.1
20260508051128 44 278 0.0 2.0 0.00 0.00 0.00 74 1012.4
20260508051123 45 207 1.0 3.0 0.00 0.00 0.00 75 1011.8
20260508051119 45 211 2.0 3.0 0.00 0.00 0.00 74 1012.1
20260508051115 45 191 0.0 2.0 0.00 0.00 0.00 76 1011.8
20260508051105 45 191 0.0 3.0 0.00 0.00 0.00 75 1011.8
20260508051100 45 190 0.0 3.0 0.00 0.00 0.00 76 1011.8
20260508051052 45 189 0.0 3.0 0.00 0.00 0.00 76 1011.8
20260508050830 45 188 0.0 3.0 0.00 0.00 0.00 75 1012.1
20260508050821 45 200 1.0 3.0 0.00 0.00 0.00 75 1011.8
20260508050800 45 206 1.0 3.0 0.00 0.00 0.00 75 1011.8
20260508050538 45 204 0.0 3.0 0.00 0.00 0.00 75 1011.8
20260508050529 45 202 1.0 3.0 0.00 0.00 0.00 75 1012.1
20260508050306 45 194 1.0 3.0 0.00 0.00 0.00 75 1012.1
20260508050257 45 201 0.0 3.0 0.00 0.00 0.00 74 1011.8
20260508050246 45 211 2.0 3.0 0.00 0.00 0.00 74 1012.1
20260508050027 45 186 2.0 3.0 0.00 0.00 0.00 74 1011.8
20260508045807 45 228 0.0 2.0 0.00 0.00 0.00 74 1012.1
20260508045803 45 187 2.0 3.0 0.00 0.00 0.00 74 1011.8
20260508045754 45 205 2.0 3.0 0.00 0.00 0.00 74 1012.1
20260508045746 45 177 1.0 2.0 0.00 0.00 0.00 74 1012.1
20260508045524 45 204 1.0 2.0 0.00 0.00 0.00 74 1012.1
20260508045515 45 210 1.0 2.0 0.00 0.00 0.00 75 1012.1
20260508045255 45 231 1.0 2.0 0.00 0.00 0.00 74 1012.1
20260508045247 45 173 1.0 2.0 0.00 0.00 0.00 75 1012.1
20260508045026 45 213 1.0 2.0 0.00 0.00 0.00 75 1012.1
20260508045016 45 243 1.0 2.0 0.00 0.00 0.00 75 1012.1
20260508045012 45 249 1.0 2.0 0.00 0.00 0.00 74 1012.1
20260508045003 45 198 1.0 2.0 0.00 0.00 0.00 75 1012.1
20260508044744 44 212 2.0 2.0 0.00 0.00 0.00 75 1012.4
20260508044735 44 222 2.0 2.0 0.00 0.00 0.00 74 1012.1
20260508044725 44 278 0.0 2.0 0.00 0.00 0.00 74 1012.4
20260508044504 44 334 0.0 2.0 0.00 0.00 0.00 74 1012.1
20260508044455 44 261 1.0 2.0 0.00 0.00 0.00 74 1011.8
20260508044230 44 281 1.0 2.0 0.00 0.00 0.00 74 1012.1
20260508044222 44 263 1.0 2.0 0.00 0.00 0.00 74 1012.1
20260508043956 44 240 1.0 2.0 0.00 0.00 0.00 74 1012.1
20260508043952 44 282 0.0 2.0 0.00 0.00 0.00 74 1012.1
20260508043943 44 291 0.0 2.0 0.00 0.00 0.00 74 1012.1
20260508043724 44 290 0.0 2.0 0.00 0.00 0.00 74 1012.1
20260508043715 44 307 0.0 1.0 0.00 0.00 0.00 74 1012.1
20260508043707 44 282 1.0 1.0 0.00 0.00 0.00 75 1012.1
20260508043441 44 258 0.0 1.0 0.00 0.00 0.00 75 1011.8
20260508043432 44 210 0.0 0.0 0.00 0.00 0.00 75 1012.1
20260508043207 44 210 0.0 0.0 0.00 0.00 0.00 73 1012.1
20260508043159 44 210 0.0 0.0 0.00 0.00 0.00 73 1011.8
20260508043148 44 202 0.0 0.0 0.00 0.00 0.00 74 1012.1
20260508042829 44 207 0.0 0.0 0.00 0.00 0.00 74 1012.1
20260508042724 44 200 0.0 0.0 0.00 0.00 0.00 75 1011.8
20260508042618 44 195 0.0 0.0 0.00 0.00 0.00 74 1011.8
20260508042511 44 195 0.0 0.0 0.00 0.00 0.00 74 1012.1
20260508042423 44 196 0.0 0.0 0.00 0.00 0.00 73 1012.1
20260508042407 44 203 0.0 0.0 0.00 0.00 0.00 73 1012.1
20260508042259 44 221 0.0 0.0 0.00 0.00 0.00 73 1012.1
20260508042153 44 220 0.0 0.0 0.00 0.00 0.00 74 1012.1
20260508042048 44 219 0.0 0.0 0.00 0.00 0.00 73 1011.8
20260508041942 44 193 0.0 1.0 0.00 0.00 0.00 74 1012.1
20260508041915 44 193 0.0 2.0 0.00 0.00 0.00 74 1012.1
20260508041842 44 193 0.0 2.0 0.00 0.00 0.00 75 1012.1
20260508041831 44 193 0.0 2.0 0.00 0.00 0.00 74 1012.1
20260508041629 44 196 0.0 2.0 0.00 0.00 0.00 73 1011.8
20260508041519 44 197 0.0 6.0 0.00 0.00 0.00 73 1011.8
20260508041413 44 254 0.0 7.0 0.00 0.00 0.00 73 1011.8
20260508041308 45 256 0.0 7.0 0.00 0.00 0.00 73 1012.1
20260508041202 45 256 0.0 7.0 0.00 0.00 0.00 72 1012.1
20260508041119 46 258 0.0 7.0 0.00 0.00 0.00 72 1012.1
20260508040951 46 273 1.0 7.0 0.00 0.00 0.00 70 1012.1
20260508040903 46 235 1.0 7.0 0.00 0.00 0.00 67 1012.1
20260508040846 46 249 1.0 7.0 0.00 0.00 0.00 67 1012.1
20260508040740 46 207 2.0 7.0 0.00 0.00 0.00 66 1011.8
20260508040634 46 199 0.0 7.0 0.00 0.00 0.00 67 1011.8
20260508040531 45 196 2.0 7.0 0.00 0.00 0.00 66 1012.1
20260508040522 44 217 5.0 7.0 0.00 0.00 0.00 68 1012.1
20260508040357 44 273 3.0 7.0 0.00 0.00 0.00 70 1012.1
20260508040317 44 188 1.0 2.0 0.00 0.00 0.00 72 1012.1
20260508040212 44 200 1.0 2.0 0.00 0.00 0.00 73 1012.1
20260508040110 44 216 2.0 2.0 0.00 0.00 0.00 73 1011.8
20260508040000 44 218 1.0 2.0 0.00 0.00 0.00 73 1011.8
20260508035854 44 119 0.0 0.0 0.00 0.00 0.00 71 1011.8
20260508035751 45 45 0.0 0.0 0.00 0.00 0.00 70 1011.8
20260508035645 45 224 0.0 0.0 0.00 0.00 0.00 70 1012.1
20260508035539 45 218 0.0 0.0 0.00 0.00 0.00 68 1011.8
20260508035433 45 218 0.0 0.0 0.00 0.00 0.00 68 1012.1
20260508035328 44 210 0.0 0.0 0.00 0.00 0.00 68 1011.8
20260508035222 44 212 0.0 0.0 0.00 0.00 0.00 68 1011.8
20260508035117 45 212 0.0 0.0 0.00 0.00 0.00 69 1011.8
20260508035011 45 203 0.0 0.0 0.00 0.00 0.00 70 1011.8
20260508034905 45 203 0.0 0.0 0.00 0.00 0.00 70 1011.8
20260508034817 45 203 0.0 0.0 0.00 0.00 0.00 69 1011.8
20260508034801 45 205 0.0 0.0 0.00 0.00 0.00 69 1011.8
20260508034654 45 229 0.0 0.0 0.00 0.00 0.00 68 1011.8
20260508034548 45 240 0.0 0.0 0.00 0.00 0.00 69 1012.1
20260508034442 45 251 0.0 0.0 0.00 0.00 0.00 68 1011.8
20260508034311 45 298 0.0 0.0 0.00 0.00 0.00 65 1011.8
20260508034231 45 298 0.0 0.0 0.00 0.00 0.00 65 1011.8
20260508034125 45 298 0.0 0.0 0.00 0.00 0.00 66 1011.8
20260508034020 45 298 0.0 0.0 0.00 0.00 0.00 67 1011.4
20260508033914 45 299 0.0 0.0 0.00 0.00 0.00 65 1011.4
20260508033809 45 299 0.0 0.0 0.00 0.00 0.00 65 1011.4
20260508033703 45 299 0.0 0.0 0.00 0.00 0.00 64 1011.4
20260508033558 45 299 0.0 0.0 0.00 0.00 0.00 64 1011.4
20260508033452 45 299 0.0 0.0 0.00 0.00 0.00 64 1011.4
20260508033346 45 299 0.0 0.0 0.00 0.00 0.00 64 1011.4
20260508033241 45 299 0.0 0.0 0.00 0.00 0.00 64 1011.4
20260508033135 45 299 0.0 0.0 0.00 0.00 0.00 64 1011.4
20260508033030 45 299 0.0 0.0 0.00 0.00 0.00 63 1011.4
20260508032924 45 299 0.0 0.0 0.00 0.00 0.00 64 1011.4
20260508032818 45 299 0.0 0.0 0.00 0.00 0.00 63 1011.4
20260508032752 45 299 0.0 0.0 0.00 0.00 0.00 63 1011.4
20260508032713 45 299 0.0 0.0 0.00 0.00 0.00 63 1011.8
20260508032607 45 299 0.0 0.0 0.00 0.00 0.00 63 1011.4
20260508032501 45 299 0.0 0.0 0.00 0.00 0.00 63 1011.4
20260508032355 45 299 0.0 0.0 0.00 0.00 0.00 63 1011.8
20260508032250 45 299 0.0 0.0 0.00 0.00 0.00 63 1011.8
20260508032144 45 299 0.0 0.0 0.00 0.00 0.00 63 1011.8
20260508032038 45 299 0.0 0.0 0.00 0.00 0.00 63 1011.8
20260508031932 45 299 0.0 0.0 0.00 0.00 0.00 63 1011.8
20260508031827 45 299 0.0 0.0 0.00 0.00 0.00 63 1011.8
20260508031722 45 299 0.0 0.0 0.00 0.00 0.00 63 1011.4
20260508031616 45 299 0.0 0.0 0.00 0.00 0.00 64 1011.8
20260508031510 45 299 0.0 0.0 0.00 0.00 0.00 64 1011.8
20260508031404 45 299 0.0 0.0 0.00 0.00 0.00 64 1011.8
20260508031233 45 299 0.0 0.0 0.00 0.00 0.00 65 1011.8
20260508031153 45 299 0.0 0.0 0.00 0.00 0.00 64 1011.8
20260508031048 45 299 0.0 0.0 0.00 0.00 0.00 64 1011.8
20260508030942 45 299 0.0 0.0 0.00 0.00 0.00 64 1011.8
20260508030836 45 299 0.0 0.0 0.00 0.00 0.00 64 1011.8
20260508030731 46 299 0.0 0.0 0.00 0.00 0.00 64 1012.1
20260508030637 46 299 0.0 0.0 0.00 0.00 0.00 64 1012.1
20260508030519 46 299 0.0 0.0 0.00 0.00 0.00 64 1012.1
20260508030437 49 336 3.0 4.0 0.00 0.00 0.00 54 1011.8
20260508030433 49 226 0.0 4.0 0.00 0.00 0.00 56 1011.8
20260508030428 49 302 0.0 4.0 0.00 0.00 0.00 57 1011.8
20260508030424 46 299 0.0 0.0 0.00 0.00 0.00 63 1012.1
20260508030416 46 299 0.0 0.0 0.00 0.00 0.00 62 1012.1
20260508030352 46 299 0.0 0.0 0.00 0.00 0.00 62 1012.1
20260508030348 46 299 0.0 0.0 0.00 0.00 0.00 62 1012.1
20260508030128 50 310 1.0 9.0 0.00 0.00 0.00 52 1011.4
20260508030123 46 299 0.0 0.0 0.00 0.00 0.00 61 1011.8
20260508030115 46 299 0.0 0.0 0.00 0.00 0.00 61 1011.8
20260508025825 46 299 0.0 0.0 0.00 0.00 0.00 61 1012.1
20260508025821 46 299 0.0 0.0 0.00 0.00 0.00 60 1012.1
20260508025557 46 299 0.0 0.0 0.00 0.00 0.00 60 1012.1
20260508025549 46 299 0.0 0.0 0.00 0.00 0.00 60 1011.8
20260508025326 46 299 0.0 0.0 0.00 0.00 0.00 61 1012.1
20260508025311 46 299 0.0 0.0 0.00 0.00 0.00 60 1011.8
20260508025306 47 299 0.0 0.0 0.00 0.00 0.00 60 1011.8
20260508025042 48 298 0.0 4.0 0.00 0.00 0.00 57 1011.8
20260508025038 47 298 0.0 0.0 0.00 0.00 0.00 61 1011.8
20260508025029 47 299 0.0 0.0 0.00 0.00 0.00 60 1011.8
20260508024800 47 299 0.0 0.0 0.00 0.00 0.00 60 1012.1
20260508024756 47 299 0.0 0.0 0.00 0.00 0.00 60 1012.1
20260508024534 47 299 0.0 0.0 0.00 0.00 0.00 60 1012.1
20260508024526 47 299 0.0 0.0 0.00 0.00 0.00 60 1012.1
20260508024517 47 299 0.0 0.0 0.00 0.00 0.00 59 1011.8
20260508024253 47 299 0.0 0.0 0.00 0.00 0.00 59 1012.1
20260508024238 47 299 0.0 0.0 0.00 0.00 0.00 59 1012.1
20260508024017 47 305 0.0 0.0 0.00 0.00 0.00 59 1012.1
20260508024008 47 304 0.0 0.0 0.00 0.00 0.00 59 1011.8
20260508024000 47 304 0.0 0.0 0.00 0.00 0.00 59 1012.1
20260508023739 47 304 0.0 0.0 0.00 0.00 0.00 59 1011.8
20260508023734 47 304 0.0 1.0 0.00 0.00 0.00 59 1011.8
20260508023726 47 304 0.0 1.0 0.00 0.00 0.00 59 1011.8
20260508023506 48 305 0.0 1.0 0.00 0.00 0.00 59 1011.8
20260508023458 48 304 0.0 1.0 0.00 0.00 0.00 58 1011.8
20260508023237 48 302 0.0 1.0 0.00 0.00 0.00 58 1011.8
20260508023227 48 354 0.0 1.0 0.00 0.00 0.00 59 1011.8
20260508023222 48 305 0.0 1.0 0.00 0.00 0.00 59 1011.8
20260508023214 48 299 0.0 3.0 0.00 0.00 0.00 58 1011.8
20260508022953 49 318 1.0 1.0 0.00 0.00 0.00 54 1011.8
20260508022949 48 316 0.0 3.0 0.00 0.00 0.00 57 1011.8
20260508022940 48 315 0.0 3.0 0.00 0.00 0.00 58 1011.8
20260508022709 48 328 1.0 3.0 0.00 0.00 0.00 58 1011.8
20260508022705 48 307 0.0 3.0 0.00 0.00 0.00 58 1011.8
20260508022657 48 280 0.0 3.0 0.00 0.00 0.00 57 1011.8
20260508022436 48 310 0.0 3.0 0.00 0.00 0.00 57 1011.4
20260508022428 48 312 0.0 3.0 0.00 0.00 0.00 57 1011.8
20260508022202 48 331 0.0 3.0 0.00 0.00 0.00 57 1011.8
20260508022158 48 317 0.0 3.0 0.00 0.00 0.00 57 1011.8
20260508022149 48 322 1.0 2.0 0.00 0.00 0.00 57 1011.8
20260508021929 48 350 1.0 4.0 0.00 0.00 0.00 57 1011.8
20260508021921 48 278 0.0 4.0 0.00 0.00 0.00 56 1011.8
20260508021912 48 281 0.0 4.0 0.00 0.00 0.00 57 1011.8
20260508021651 48 299 0.0 4.0 0.00 0.00 0.00 57 1011.8
20260508021642 48 222 0.0 4.0 0.00 0.00 0.00 56 1011.8
20260508021417 48 273 0.0 4.0 0.00 0.00 0.00 57 1011.8
20260508021408 49 255 0.0 4.0 0.00 0.00 0.00 57 1011.8
20260508021148 49 332 2.0 4.0 0.00 0.00 0.00 57 1012.1
20260508021137 49 315 2.0 4.0 0.00 0.00 0.00 57 1012.1
20260508021133 49 238 1.0 4.0 0.00 0.00 0.00 56 1011.8
20260508021125 49 306 1.0 4.0 0.00 0.00 0.00 57 1011.8
20260508020901 49 351 1.0 4.0 0.00 0.00 0.00 56 1011.8
20260508020853 49 16 1.0 4.0 0.00 0.00 0.00 56 1011.8
20260508020631 49 227 0.0 4.0 0.00 0.00 0.00 56 1011.8
20260508020622 49 314 0.0 4.0 0.00 0.00 0.00 56 1012.1
20260508020403 49 314 0.0 4.0 0.00 0.00 0.00 56 1011.8
20260508020354 49 317 0.0 4.0 0.00 0.00 0.00 56 1012.1
20260508020346 49 307 0.0 4.0 0.00 0.00 0.00 58 1011.8
20260508020124 49 219 0.0 4.0 0.00 0.00 0.00 56 1012.1
20260508020116 49 193 0.0 4.0 0.00 0.00 0.00 55 1011.8
20260508015855 49 161 0.0 4.0 0.00 0.00 0.00 56 1012.1
20260508015847 49 322 2.0 4.0 0.00 0.00 0.00 55 1012.1
20260508015838 49 326 3.0 4.0 0.00 0.00 0.00 54 1011.8
20260508015617 49 328 2.0 4.0 0.00 0.00 0.00 53 1012.1
20260508015608 49 330 4.0 4.0 0.00 0.00 0.00 53 1012.1
20260508015345 49 338 2.0 3.0 0.00 0.00 0.00 54 1011.8
20260508015336 49 315 1.0 1.0 0.00 0.00 0.00 54 1011.8
20260508015115 49 336 1.0 1.0 0.00 0.00 0.00 54 1011.8
20260508015107 49 327 1.0 1.0 0.00 0.00 0.00 54 1011.8
20260508015058 49 330 0.0 1.0 0.00 0.00 0.00 54 1011.8
20260508014826 49 330 1.0 3.0 0.00 0.00 0.00 53 1011.8
20260508014817 49 313 0.0 6.0 0.00 0.00 0.00 53 1011.8
20260508014552 49 314 0.0 6.0 0.00 0.00 0.00 53 1011.8
20260508014547 49 304 0.0 9.0 0.00 0.00 0.00 53 1012.1
20260508014538 49 336 1.0 9.0 0.00 0.00 0.00 53 1011.8
20260508014319 49 340 0.0 9.0 0.00 0.00 0.00 53 1011.8
20260508014310 50 323 0.0 9.0 0.00 0.00 0.00 52 1011.4
20260508014302 50 313 1.0 9.0 0.00 0.00 0.00 52 1011.4
20260508013955 50 271 0.0 9.0 0.00 0.00 0.00 52 1011.8
20260508013849 50 289 0.0 9.0 0.00 0.00 0.00 51 1011.8
20260508013743 50 283 3.0 9.0 0.00 0.00 0.00 51 1011.8
20260508013637 49 281 4.0 9.0 0.00 0.00 0.00 52 1011.8
20260508013532 49 218 6.0 9.0 0.00 0.00 0.00 53 1011.8
20260508013426 49 258 0.0 0.0 0.00 0.00 0.00 52 1011.8
20260508013320 49 224 0.0 0.0 0.00 0.00 0.00 52 1011.4
20260508013215 49 223 0.0 0.0 0.00 0.00 0.00 52 1011.8
20260508013108 49 223 0.0 0.0 0.00 0.00 0.00 52 1011.8
20260508013031 49 224 0.0 0.0 0.00 0.00 0.00 51 1011.4
20260508013003 49 224 0.0 0.0 0.00 0.00 0.00 51 1011.4
20260508012857 49 209 0.0 0.0 0.00 0.00 0.00 51 1011.4
20260508012750 49 227 0.0 0.0 0.00 0.00 0.00 52 1011.4
20260508012646 49 277 0.0 0.0 0.00 0.00 0.00 52 1011.8
20260508012524 49 238 0.0 0.0 0.00 0.00 0.00 52 1011.4
20260508012434 49 205 0.0 0.0 0.00 0.00 0.00 53 1011.4
20260508012327 49 224 0.0 0.0 0.00 0.00 0.00 53 1011.8
20260508012222 49 271 0.0 0.0 0.00 0.00 0.00 52 1011.8
20260508012116 49 273 0.0 0.0 0.00 0.00 0.00 52 1011.4
20260508012011 49 277 0.0 0.0 0.00 0.00 0.00 52 1011.8
20260508011905 49 277 0.0 0.0 0.00 0.00 0.00 52 1011.4
20260508011759 49 278 0.0 0.0 0.00 0.00 0.00 51 1011.4
20260508011654 49 284 0.0 0.0 0.00 0.00 0.00 52 1011.4
20260508011548 49 280 0.0 0.0 0.00 0.00 0.00 52 1011.4
20260508011510 49 280 0.0 0.0 0.00 0.00 0.00 52 1011.4
20260508011442 49 291 0.0 0.0 0.00 0.00 0.00 52 1011.4
20260508011336 49 292 0.0 0.0 0.00 0.00 0.00 51 1011.4
20260508011230 49 296 0.0 0.0 0.00 0.00 0.00 51 1011.4
20260508011125 49 307 0.0 0.0 0.00 0.00 0.00 51 1011.4
20260508011004 49 306 0.0 0.0 0.00 0.00 0.00 51 1011.1
20260508010913 49 313 0.0 0.0 0.00 0.00 0.00 51 1011.4
20260508010808 49 285 0.0 0.0 0.00 0.00 0.00 51 1011.4
20260508010702 49 284 0.0 0.0 0.00 0.00 0.00 51 1011.1
20260508010557 49 277 0.0 0.0 0.00 0.00 0.00 51 1011.1
20260508010452 49 271 0.0 0.0 0.00 0.00 0.00 51 1011.1
20260508010346 49 272 0.0 0.0 0.00 0.00 0.00 51 1011.1
20260508010240 49 272 0.0 0.0 0.00 0.00 0.00 51 1011.1
20260508010134 49 272 0.0 0.0 0.00 0.00 0.00 51 1011.1
20260508010028 49 272 0.0 0.0 0.00 0.00 0.00 51 1011.1
20260508005922 49 272 0.0 0.0 0.00 0.00 0.00 51 1011.1
20260508005816 49 298 0.0 0.0 0.00 0.00 0.00 51 1011.1
20260508005711 49 298 0.0 0.0 0.00 0.00 0.00 52 1011.1
20260508005605 50 298 0.0 0.0 0.00 0.00 0.00 51 1011.1
20260508005444 50 298 0.0 0.0 0.00 0.00 0.00 51 1011.1
20260508005354 50 298 0.0 0.0 0.00 0.00 0.00 51 1011.1
20260508005248 50 298 0.0 0.0 0.00 0.00 0.00 50 1010.8
20260508005142 50 309 0.0 0.0 0.00 0.00 0.00 50 1011.1
20260508005036 50 249 0.0 0.0 0.00 0.00 0.00 50 1011.1
20260508004930 50 249 0.0 0.0 0.00 0.00 0.00 50 1011.1
20260508004824 50 244 0.0 0.0 0.00 0.00 0.00 50 1011.1
20260508004720 50 277 0.0 2.0 0.00 0.00 0.00 50 1010.8
20260508004614 50 300 0.0 4.0 0.00 0.00 0.00 49 1011.1
20260508004508 50 278 0.0 4.0 0.00 0.00 0.00 50 1011.1
20260508004430 50 273 0.0 4.0 0.00 0.00 0.00 51 1011.1
20260508004402 50 272 0.0 4.0 0.00 0.00 0.00 50 1011.1
20260508004257 50 272 0.0 4.0 0.00 0.00 0.00 49 1010.8
20260508004151 50 282 0.0 4.0 0.00 0.00 0.00 49 1011.1
20260508004046 50 221 0.0 4.0 0.00 0.00 0.00 49 1011.1
20260508003940 50 263 0.0 4.0 0.00 0.00 0.00 50 1011.1
20260508003924 50 267 0.0 4.0 0.00 0.00 0.00 50 1011.1
20260508003835 51 338 0.0 4.0 0.00 0.00 0.00 50 1011.1
20260508003728 51 321 1.0 4.0 0.00 0.00 0.00 49 1011.1
20260508003623 51 243 0.0 3.0 0.00 0.00 0.00 49 1011.1
20260508003517 51 247 0.0 4.0 0.00 0.00 0.00 49 1010.8
20260508003411 51 258 0.0 4.0 0.00 0.00 0.00 49 1011.1
20260508003306 51 259 1.0 4.0 0.00 0.00 0.00 49 1011.1
20260508003200 51 269 1.0 4.0 0.00 0.00 0.00 49 1011.1
20260508003055 51 263 1.0 4.0 0.00 0.00 0.00 49 1011.1
20260508002949 51 240 0.0 4.0 0.00 0.00 0.00 49 1011.1
20260508002911 51 281 0.0 4.0 0.00 0.00 0.00 50 1011.1
20260508002843 51 285 0.0 4.0 0.00 0.00 0.00 50 1011.1
20260508002737 51 298 1.0 4.0 0.00 0.00 0.00 49 1011.1
20260508002631 51 264 1.0 4.0 0.00 0.00 0.00 48 1011.1
20260508002526 51 253 3.0 4.0 0.00 0.00 0.00 48 1011.1
20260508002421 51 265 2.0 3.0 0.00 0.00 0.00 48 1011.1
20260508002405 51 258 2.0 3.0 0.00 0.00 0.00 48 1011.1
20260508002316 51 279 0.0 4.0 0.00 0.00 0.00 49 1011.1
20260508002209 51 256 0.0 6.0 0.00 0.00 0.00 49 1011.1
20260508002106 51 259 1.0 6.0 0.00 0.00 0.00 49 1011.1
20260508002000 51 239 1.0 6.0 0.00 0.00 0.00 49 1010.8
20260508001901 51 278 0.0 6.0 0.00 0.00 0.00 48 1011.1
20260508001854 51 229 0.0 6.0 0.00 0.00 0.00 49 1011.1
20260508001748 51 304 1.0 6.0 0.00 0.00 0.00 49 1011.1
20260508001643 51 243 0.0 6.0 0.00 0.00 0.00 49 1011.1
20260508001537 51 329 1.0 6.0 0.00 0.00 0.00 49 1011.1
20260508001432 51 225 0.0 6.0 0.00 0.00 0.00 48 1011.1
20260508001355 51 229 2.0 6.0 0.00 0.00 0.00 48 1011.1
20260508001326 51 354 3.0 6.0 0.00 0.00 0.00 47 1011.1
20260508001221 51 273 1.0 4.0 0.00 0.00 0.00 48 1010.8
20260508001115 51 261 1.0 4.0 0.00 0.00 0.00 48 1011.1
20260508001010 51 142 1.0 4.0 0.00 0.00 0.00 49 1010.8
20260508000848 51 9 0.0 4.0 0.00 0.00 0.00 49 1011.1
20260508000758 51 315 1.0 4.0 0.00 0.00 0.00 49 1010.8
20260508000652 51 229 1.0 4.0 0.00 0.00 0.00 48 1010.8
20260508000547 51 195 2.0 4.0 0.00 0.00 0.00 48 1010.8
20260508000442 51 302 2.0 6.0 0.00 0.00 0.00 48 1011.1
20260508000335 51 116 0.0 6.0 0.00 0.00 0.00 49 1011.1
20260508000242 51 220 0.0 6.0 0.00 0.00 0.00 48 1011.1
20260508000125 51 291 2.0 6.0 0.00 0.00 0.00 47 1010.8
20260508000018 51 277 1.0 6.0 0.00 0.00 0.00 48 1011.1
20260507235913 51 212 0.0 6.0 0.00 0.00 0.00 48 1010.8
20260507235835 51 235 2.0 6.0 0.00 0.00 0.00 48 1010.8
20260507235807 51 249 2.0 6.0 0.00 0.00 0.00 49 1010.8
20260507235702 51 217 0.0 7.0 0.00 0.00 0.00 47 1010.8
20260507235556 51 271 2.0 7.0 0.00 0.00 0.00 47 1010.8
20260507235450 52 294 2.0 7.0 0.00 0.00 0.00 48 1010.8
20260507235345 52 228 2.0 7.0 0.00 0.00 0.00 47 1011.1
20260507235329 52 231 0.0 7.0 0.00 0.00 0.00 47 1011.1
20260507235238 51 291 2.0 7.0 0.00 0.00 0.00 46 1010.8
20260507235132 51 261 1.0 7.0 0.00 0.00 0.00 47 1011.1
20260507235030 52 261 3.0 7.0 0.00 0.00 0.00 47 1010.8
20260507234926 52 350 2.0 7.0 0.00 0.00 0.00 47 1010.8
20260507234819 51 255 2.0 7.0 0.00 0.00 0.00 47 1010.8
20260507234713 51 215 4.0 7.0 0.00 0.00 0.00 47 1010.8
20260507234608 51 263 2.0 7.0 0.00 0.00 0.00 47 1010.8
20260507234502 51 277 3.0 6.0 0.00 0.00 0.00 47 1011.1
20260507234356 51 199 2.0 6.0 0.00 0.00 0.00 47 1010.8
20260507234319 51 260 2.0 6.0 0.00 0.00 0.00 48 1011.1
20260507234251 51 218 1.0 6.0 0.00 0.00 0.00 47 1011.1
20260507234145 52 207 0.0 6.0 0.00 0.00 0.00 47 1011.1
20260507234039 52 258 1.0 6.0 0.00 0.00 0.00 47 1010.8
20260507233935 52 225 4.0 6.0 0.00 0.00 0.00 46 1010.8
20260507233828 52 262 5.0 6.0 0.00 0.00 0.00 47 1010.8
20260507233812 52 248 3.0 6.0 0.00 0.00 0.00 48 1010.8
20260507233722 52 189 0.0 6.0 0.00 0.00 0.00 47 1010.8
20260507233616 52 252 0.0 10.0 0.00 0.00 0.00 47 1011.1
20260507233512 52 261 0.0 10.0 0.00 0.00 0.00 47 1011.1
20260507233406 52 259 0.0 10.0 0.00 0.00 0.00 47 1011.1
20260507233307 52 223 1.0 10.0 0.00 0.00 0.00 46 1010.8
20260507233301 52 71 2.0 10.0 0.00 0.00 0.00 46 1010.8
20260507233154 52 235 3.0 10.0 0.00 0.00 0.00 46 1011.1
20260507233049 52 313 3.0 11.0 0.00 0.00 0.00 46 1010.8
20260507232943 52 206 2.0 11.0 0.00 0.00 0.00 47 1010.8
20260507232837 52 332 1.0 11.0 0.00 0.00 0.00 45 1010.8
20260507232800 52 109 2.0 11.0 0.00 0.00 0.00 46 1010.8
20260507232732 52 264 5.0 11.0 0.00 0.00 0.00 46 1010.8
20260507232625 52 212 2.0 11.0 0.00 0.00 0.00 47 1010.8
20260507232519 52 328 3.0 11.0 0.00 0.00 0.00 46 1010.8
20260507232413 52 208 1.0 11.0 0.00 0.00 0.00 46 1010.8
20260507232308 52 217 3.0 11.0 0.00 0.00 0.00 46 1010.8
20260507232253 52 231 4.0 11.0 0.00 0.00 0.00 46 1010.8
20260507232202 52 220 3.0 11.0 0.00 0.00 0.00 46 1010.8
20260507232057 52 269 8.0 11.0 0.00 0.00 0.00 45 1011.1
20260507231951 52 279 2.0 9.0 0.00 0.00 0.00 46 1011.1
20260507231846 52 281 0.0 9.0 0.00 0.00 0.00 45 1010.8
20260507231751 52 219 0.0 9.0 0.00 0.00 0.00 47 1010.8
20260507231634 52 263 4.0 9.0 0.00 0.00 0.00 45 1010.8
20260507231527 52 258 1.0 9.0 0.00 0.00 0.00 45 1010.8
20260507231421 53 232 3.0 9.0 0.00 0.00 0.00 45 1010.8
20260507231316 53 160 4.0 10.0 0.00 0.00 0.00 44 1011.1
20260507231238 53 0 1.0 10.0 0.00 0.00 0.00 44 1010.8
20260507231210 53 297 4.0 13.0 0.00 0.00 0.00 44 1010.8
20260507231105 54 357 3.0 13.0 0.00 0.00 0.00 44 1010.8
20260507230959 54 318 2.0 13.0 0.00 0.00 0.00 43 1010.8
20260507230853 54 318 3.0 13.0 0.00 0.00 0.00 43 1010.8
20260507230732 54 307 2.0 13.0 0.00 0.00 0.00 44 1010.8
20260507230642 53 299 2.0 13.0 0.00 0.00 0.00 43 1010.8
20260507230536 53 257 4.0 13.0 0.00 0.00 0.00 44 1010.8
20260507230431 53 235 6.0 13.0 0.00 0.00 0.00 44 1010.8
20260507230325 53 269 6.0 13.0 0.00 0.00 0.00 43 1010.8
20260507230226 53 231 6.0 10.0 0.00 0.00 0.00 44 1010.8
20260507230219 53 31 2.0 9.0 0.00 0.00 0.00 44 1010.8
20260507230114 53 328 3.0 10.0 0.00 0.00 0.00 44 1010.8
20260507230009 53 305 4.0 10.0 0.00 0.00 0.00 44 1010.8
20260507225902 53 299 5.0 10.0 0.00 0.00 0.00 44 1011.1
20260507225758 53 246 4.0 10.0 0.00 0.00 0.00 44 1010.8
20260507225720 53 269 4.0 10.0 0.00 0.00 0.00 44 1010.8
20260507225652 53 287 5.0 10.0 0.00 0.00 0.00 44 1010.8
20260507225547 53 285 7.0 10.0 0.00 0.00 0.00 45 1010.8
20260507225440 53 287 7.0 10.0 0.00 0.00 0.00 44 1010.8
20260507225334 53 273 5.0 10.0 0.00 0.00 0.00 46 1010.8
20260507225241 53 189 9.0 10.0 0.00 0.00 0.00 43 1010.8
20260507225213 53 140 6.0 9.0 0.00 0.00 0.00 45 1010.8
20260507225122 53 275 4.0 8.0 0.00 0.00 0.00 44 1010.8
20260507225016 53 263 4.0 8.0 0.00 0.00 0.00 45 1010.8
20260507224912 53 242 2.0 8.0 0.00 0.00 0.00 45 1010.8
20260507224805 53 32 6.0 8.0 0.00 0.00 0.00 45 1011.1
20260507224706 53 189 2.0 8.0 0.00 0.00 0.00 45 1011.1
20260507224701 53 189 2.0 8.0 0.00 0.00 0.00 45 1011.1
20260507224553 53 326 3.0 8.0 0.00 0.00 0.00 45 1010.8
20260507224447 53 268 5.0 8.0 0.00 0.00 0.00 46 1010.8
20260507224341 53 248 2.0 7.0 0.00 0.00 0.00 46 1010.8
20260507224235 53 261 3.0 7.0 0.00 0.00 0.00 45 1011.1
20260507224158 53 243 4.0 8.0 0.00 0.00 0.00 45 1011.1
20260507224130 53 212 4.0 8.0 0.00 0.00 0.00 46 1010.8
20260507224024 54 2 3.0 8.0 0.00 0.00 0.00 45 1010.8
20260507223919 54 308 2.0 8.0 0.00 0.00 0.00 44 1010.8
20260507223813 54 287 1.0 8.0 0.00 0.00 0.00 44 1010.8
20260507223708 54 324 1.0 8.0 0.00 0.00 0.00 45 1010.8
20260507223652 54 324 1.0 8.0 0.00 0.00 0.00 45 1010.8
20260507223559 53 312 2.0 9.0 0.00 0.00 0.00 44 1011.1
20260507223453 53 314 1.0 9.0 0.00 0.00 0.00 44 1010.8
20260507223348 53 350 1.0 14.0 0.00 0.00 0.00 45 1011.1
20260507223242 52 214 5.0 14.0 0.00 0.00 0.00 45 1011.1
20260507223137 52 234 2.0 14.0 0.00 0.00 0.00 45 1011.1
20260507223031 52 255 4.0 14.0 0.00 0.00 0.00 45 1011.1
20260507222925 52 220 5.0 14.0 0.00 0.00 0.00 45 1011.4
20260507222820 53 228 4.0 14.0 0.00 0.00 0.00 45 1011.1
20260507222714 52 289 2.0 14.0 0.00 0.00 0.00 45 1011.1
20260507222636 53 252 7.0 14.0 0.00 0.00 0.00 45 1011.1
20260507222608 53 224 4.0 14.0 0.00 0.00 0.00 46 1011.1
20260507222502 53 224 7.0 14.0 0.00 0.00 0.00 44 1011.1
20260507222357 53 257 4.0 14.0 0.00 0.00 0.00 44 1011.1
20260507222250 53 253 6.0 14.0 0.00 0.00 0.00 44 1011.1
20260507222146 54 275 8.0 14.0 0.00 0.00 0.00 43 1011.1
20260507222131 54 326 4.0 14.0 0.00 0.00 0.00 44 1011.1
20260507222039 54 233 3.0 11.0 0.00 0.00 0.00 44 1011.1
20260507221934 54 234 1.0 11.0 0.00 0.00 0.00 45 1011.1
20260507221828 54 333 1.0 11.0 0.00 0.00 0.00 45 1011.1
20260507221722 54 294 4.0 13.0 0.00 0.00 0.00 44 1011.1
20260507221623 54 222 4.0 13.0 0.00 0.00 0.00 43 1011.1
20260507221617 54 320 4.0 13.0 0.00 0.00 0.00 43 1011.1
20260507221512 54 245 2.0 13.0 0.00 0.00 0.00 44 1011.1
20260507221405 54 231 2.0 13.0 0.00 0.00 0.00 44 1010.8
20260507221300 54 203 5.0 13.0 0.00 0.00 0.00 43 1011.1
20260507221153 53 231 5.0 13.0 0.00 0.00 0.00 44 1010.8
20260507221117 53 114 1.0 13.0 0.00 0.00 0.00 45 1011.1
20260507221102 53 181 0.0 13.0 0.00 0.00 0.00 46 1011.1
20260507220943 53 259 5.0 13.0 0.00 0.00 0.00 45 1010.8
20260507220850 53 280 5.0 13.0 0.00 0.00 0.00 44 1011.1
20260507220732 53 246 2.0 10.0 0.00 0.00 0.00 45 1011.1
20260507220609 53 188 4.0 10.0 0.00 0.00 0.00 44 1011.1
20260507220518 53 205 2.0 9.0 0.00 0.00 0.00 44 1011.1
20260507220413 53 332 2.0 9.0 0.00 0.00 0.00 45 1011.1
20260507220307 53 292 2.0 9.0 0.00 0.00 0.00 44 1011.1
20260507220203 53 255 3.0 16.0 0.00 0.00 0.00 44 1011.1
20260507220113 53 234 1.0 16.0 0.00 0.00 0.00 45 1011.1
20260507220109 53 234 1.0 16.0 0.00 0.00 0.00 45 1011.1
20260507215951 53 166 2.0 16.0 0.00 0.00 0.00 45 1011.1
20260507215844 53 246 3.0 16.0 0.00 0.00 0.00 44 1011.1
20260507215738 53 234 2.0 16.0 0.00 0.00 0.00 45 1011.1
20260507215634 53 329 3.0 16.0 0.00 0.00 0.00 44 1011.1
20260507215556 53 341 3.0 16.0 0.00 0.00 0.00 45 1011.1
20260507215528 53 297 3.0 16.0 0.00 0.00 0.00 45 1011.1
20260507215422 53 216 4.0 16.0 0.00 0.00 0.00 44 1011.1
20260507215316 53 186 1.0 16.0 0.00 0.00 0.00 44 1011.1
20260507215211 53 272 6.0 11.0 0.00 0.00 0.00 44 1011.1
20260507215105 54 282 6.0 9.0 0.00 0.00 0.00 43 1011.1
20260507215049 54 300 2.0 9.0 0.00 0.00 0.00 43 1011.1
20260507214958 54 79 0.0 9.0 0.00 0.00 0.00 43 1011.1
20260507214854 55 305 3.0 9.0 0.00 0.00 0.00 41 1011.1
20260507214747 55 291 5.0 9.0 0.00 0.00 0.00 42 1010.8
20260507214642 55 265 2.0 9.0 0.00 0.00 0.00 41 1010.8
20260507214542 55 74 2.0 9.0 0.00 0.00 0.00 42 1010.8
20260507214535 55 312 4.0 9.0 0.00 0.00 0.00 43 1011.1
20260507214430 55 260 0.0 9.0 0.00 0.00 0.00 43 1010.8
20260507214324 56 245 6.0 13.0 0.00 0.00 0.00 41 1010.8
20260507214219 56 280 4.0 13.0 0.00 0.00 0.00 40 1010.8
20260507214110 56 24 5.0 13.0 0.00 0.00 0.00 41 1010.8
20260507214032 56 290 2.0 13.0 0.00 0.00 0.00 41 1010.8
20260507214004 56 338 2.0 13.0 0.00 0.00 0.00 40 1010.8
20260507213858 56 265 1.0 13.0 0.00 0.00 0.00 42 1010.8
20260507213752 56 231 4.0 13.0 0.00 0.00 0.00 41 1010.8
20260507213647 55 327 2.0 13.0 0.00 0.00 0.00 42 1010.8
20260507213542 55 330 2.0 13.0 0.00 0.00 0.00 42 1010.8
20260507213526 55 244 5.0 13.0 0.00 0.00 0.00 41 1010.8
20260507213449 55 292 2.0 13.0 0.00 0.00 0.00 42 1010.8
20260507213330 55 4 5.0 10.0 0.00 0.00 0.00 41 1010.8
20260507213224 55 243 7.0 10.0 0.00 0.00 0.00 41 1011.1
20260507213151 54 3 3.0 13.0 0.00 0.00 0.00 41 1011.4
20260507213147 53 302 6.0 10.0 0.00 0.00 0.00 42 1011.1
20260507213143 55 257 2.0 14.0 0.00 0.00 0.00 41 1011.1
20260507213139 55 226 5.0 9.0 0.00 0.00 0.00 42 1010.8
20260507213124 54 235 4.0 9.0 0.00 0.00 0.00 42 1010.8
20260507213116 54 175 5.0 9.0 0.00 0.00 0.00 42 1010.8
20260507212851 55 200 5.0 9.0 0.00 0.00 0.00 41 1010.8
20260507212842 55 162 1.0 8.0 0.00 0.00 0.00 43 1011.1
20260507212623 55 229 0.0 8.0 0.00 0.00 0.00 44 1011.1
20260507212613 55 263 1.0 8.0 0.00 0.00 0.00 43 1010.8
20260507212609 55 221 5.0 8.0 0.00 0.00 0.00 43 1010.8
20260507212346 54 235 2.0 8.0 0.00 0.00 0.00 43 1010.8
20260507212341 55 183 0.0 8.0 0.00 0.00 0.00 42 1011.1
20260507212333 55 182 5.0 8.0 0.00 0.00 0.00 42 1011.1
20260507212325 55 247 1.0 8.0 0.00 0.00 0.00 43 1010.8
20260507212316 54 104 0.0 8.0 0.00 0.00 0.00 45 1010.8
20260507212051 54 315 2.0 8.0 0.00 0.00 0.00 42 1010.8
20260507211830 53 347 6.0 8.0 0.00 0.00 0.00 44 1011.1
20260507211826 53 338 4.0 8.0 0.00 0.00 0.00 43 1011.1
20260507211818 53 266 3.0 8.0 0.00 0.00 0.00 44 1011.1
20260507211809 53 311 0.0 8.0 0.00 0.00 0.00 44 1010.8
20260507211547 53 4 5.0 8.0 0.00 0.00 0.00 44 1011.1
20260507211539 53 30 1.0 8.0 0.00 0.00 0.00 44 1011.1
20260507211318 53 250 5.0 13.0 0.00 0.00 0.00 44 1010.8
20260507211314 53 295 4.0 8.0 0.00 0.00 0.00 43 1011.1
20260507211305 53 333 4.0 8.0 0.00 0.00 0.00 43 1011.1
20260507211257 53 305 2.0 13.0 0.00 0.00 0.00 44 1010.8
20260507211035 53 266 3.0 13.0 0.00 0.00 0.00 44 1011.1
20260507211026 53 9 5.0 13.0 0.00 0.00 0.00 43 1010.8
20260507210801 53 238 3.0 13.0 0.00 0.00 0.00 43 1010.8
20260507210753 53 233 2.0 13.0 0.00 0.00 0.00 45 1011.1
20260507210744 53 264 4.0 13.0 0.00 0.00 0.00 45 1011.1
20260507210519 53 185 1.0 13.0 0.00 0.00 0.00 44 1011.1
20260507210300 54 120 1.0 8.0 0.00 0.00 0.00 43 1011.1
20260507210254 53 109 1.0 13.0 0.00 0.00 0.00 44 1011.1
20260507210246 54 288 3.0 13.0 0.00 0.00 0.00 43 1010.8
20260507210237 54 241 3.0 8.0 0.00 0.00 0.00 43 1011.1
20260507210015 54 120 1.0 8.0 0.00 0.00 0.00 43 1011.1
20260507210007 55 239 1.0 8.0 0.00 0.00 0.00 44 1011.1
20260507205747 54 221 2.0 8.0 0.00 0.00 0.00 42 1011.1
20260507205743 55 280 1.0 8.0 0.00 0.00 0.00 43 1011.1
20260507205734 55 217 3.0 8.0 0.00 0.00 0.00 42 1010.8
20260507205725 55 255 2.0 8.0 0.00 0.00 0.00 41 1010.8
20260507205503 54 223 2.0 8.0 0.00 0.00 0.00 42 1011.1
20260507205455 54 253 3.0 8.0 0.00 0.00 0.00 44 1011.1
20260507205231 54 312 6.0 15.0 0.00 0.00 0.00 42 1011.4
20260507205225 54 256 6.0 8.0 0.00 0.00 0.00 41 1011.1
20260507205216 54 203 4.0 8.0 0.00 0.00 0.00 41 1011.1
20260507204955 54 256 2.0 8.0 0.00 0.00 0.00 42 1011.1
20260507204945 54 315 3.0 8.0 0.00 0.00 0.00 42 1011.1
20260507204940 54 325 4.0 10.0 0.00 0.00 0.00 42 1011.1
20260507204932 53 276 2.0 10.0 0.00 0.00 0.00 43 1011.1
20260507204709 53 253 4.0 10.0 0.00 0.00 0.00 43 1011.1
20260507204700 53 278 4.0 10.0 0.00 0.00 0.00 43 1011.1
20260507204439 53 269 2.0 10.0 0.00 0.00 0.00 43 1011.1
20260507204430 53 230 1.0 10.0 0.00 0.00 0.00 43 1011.1
20260507204204 53 355 2.0 10.0 0.00 0.00 0.00 43 1011.1
20260507204155 53 347 2.0 10.0 0.00 0.00 0.00 43 1011.4
20260507204146 54 293 3.0 10.0 0.00 0.00 0.00 42 1011.1
20260507203925 54 187 5.0 10.0 0.00 0.00 0.00 42 1011.1
20260507203921 54 203 7.0 10.0 0.00 0.00 0.00 42 1011.1
20260507203912 54 279 4.0 13.0 0.00 0.00 0.00 42 1011.1
20260507203648 54 336 3.0 15.0 0.00 0.00 0.00 42 1011.1
20260507203639 54 307 2.0 15.0 0.00 0.00 0.00 42 1011.1
20260507203631 54 312 6.0 15.0 0.00 0.00 0.00 42 1011.4
20260507203409 53 239 6.0 15.0 0.00 0.00 0.00 41 1011.4
20260507203400 53 264 4.0 15.0 0.00 0.00 0.00 43 1011.4
20260507203140 53 189 2.0 15.0 0.00 0.00 0.00 42 1010.8
20260507203132 53 276 8.0 15.0 0.00 0.00 0.00 41 1010.8
20260507202909 53 246 3.0 15.0 0.00 0.00 0.00 43 1010.8
20260507202905 53 246 3.0 15.0 0.00 0.00 0.00 43 1010.8
20260507202856 53 266 7.0 15.0 0.00 0.00 0.00 41 1010.8
20260507202848 54 270 9.0 14.0 0.00 0.00 0.00 41 1011.4
20260507202625 54 200 4.0 14.0 0.00 0.00 0.00 41 1011.1
20260507202616 54 206 6.0 14.0 0.00 0.00 0.00 40 1011.1
20260507202349 55 313 5.0 14.0 0.00 0.00 0.00 40 1011.1
20260507202341 55 315 6.0 9.0 0.00 0.00 0.00 40 1011.4
20260507202121 55 233 5.0 13.0 0.00 0.00 0.00 41 1011.1
20260507202112 54 335 3.0 13.0 0.00 0.00 0.00 41 1011.4
20260507202104 54 46 2.0 13.0 0.00 0.00 0.00 40 1011.4
20260507201841 53 267 4.0 17.0 0.00 0.00 0.00 41 1011.4
20260507201837 54 282 3.0 13.0 0.00 0.00 0.00 43 1011.4
20260507201829 54 245 5.0 13.0 0.00 0.00 0.00 42 1011.1
20260507201606 54 202 2.0 17.0 0.00 0.00 0.00 43 1011.4
20260507201557 53 152 2.0 17.0 0.00 0.00 0.00 42 1011.1
20260507201332 54 226 5.0 17.0 0.00 0.00 0.00 41 1011.4
20260507201227 54 303 4.0 17.0 0.00 0.00 0.00 43 1011.4
20260507201121 53 254 11.0 17.0 0.00 0.00 0.00 41 1011.4
20260507201102 52 256 2.0 17.0 0.00 0.00 0.00 42 1011.4
20260507201058 53 341 5.0 17.0 0.00 0.00 0.00 42 1011.4
20260507201049 52 337 4.0 17.0 0.00 0.00 0.00 43 1011.4
20260507200802 52 225 3.0 17.0 0.00 0.00 0.00 42 1011.4
20260507200657 52 295 4.0 17.0 0.00 0.00 0.00 42 1011.4
20260507200551 52 270 5.0 13.0 0.00 0.00 0.00 42 1011.4
20260507200446 52 229 3.0 13.0 0.00 0.00 0.00 42 1011.4
20260507200340 53 254 6.0 13.0 0.00 0.00 0.00 43 1011.4
20260507200325 53 307 2.0 13.0 0.00 0.00 0.00 43 1011.4
20260507200233 53 230 3.0 13.0 0.00 0.00 0.00 42 1011.1
20260507200128 54 317 5.0 13.0 0.00 0.00 0.00 41 1011.1
20260507200022 54 246 4.0 10.0 0.00 0.00 0.00 41 1011.4
20260507195917 54 248 2.0 10.0 0.00 0.00 0.00 43 1011.4
20260507195818 55 324 0.0 10.0 0.00 0.00 0.00 41 1011.1
20260507195810 55 349 1.0 10.0 0.00 0.00 0.00 40 1011.1
20260507195705 55 342 0.0 10.0 0.00 0.00 0.00 41 1011.4
20260507195559 55 303 3.0 10.0 0.00 0.00 0.00 42 1011.4
20260507195453 54 232 2.0 10.0 0.00 0.00 0.00 41 1011.4
20260507195347 54 283 7.0 10.0 0.00 0.00 0.00 41 1011.1
20260507195309 54 169 3.0 10.0 0.00 0.00 0.00 42 1011.4
20260507195241 54 107 2.0 13.0 0.00 0.00 0.00 41 1011.1
20260507195136 55 357 6.0 13.0 0.00 0.00 0.00 41 1011.4
20260507195030 56 125 7.0 13.0 0.00 0.00 0.00 39 1011.4
20260507194924 55 283 2.0 13.0 0.00 0.00 0.00 43 1011.1
20260507194803 55 227 3.0 13.0 0.00 0.00 0.00 41 1011.4
20260507194713 54 240 1.0 13.0 0.00 0.00 0.00 41 1011.1
20260507194607 54 291 3.0 13.0 0.00 0.00 0.00 40 1011.4
20260507194501 54 281 3.0 13.0 0.00 0.00 0.00 42 1011.4
20260507194356 54 275 4.0 13.0 0.00 0.00 0.00 41 1011.1
20260507194256 54 195 8.0 11.0 0.00 0.00 0.00 41 1011.1
20260507194250 54 246 7.0 10.0 0.00 0.00 0.00 41 1011.1
20260507194144 53 260 8.0 10.0 0.00 0.00 0.00 42 1011.1
20260507194038 53 233 3.0 10.0 0.00 0.00 0.00 43 1011.4
20260507193932 53 343 5.0 11.0 0.00 0.00 0.00 42 1011.4
20260507193827 53 341 4.0 11.0 0.00 0.00 0.00 44 1011.4
20260507193750 53 328 2.0 11.0 0.00 0.00 0.00 44 1011.4
20260507193722 53 216 4.0 11.0 0.00 0.00 0.00 41 1011.4
20260507193615 53 97 2.0 11.0 0.00 0.00 0.00 44 1011.4
20260507193510 53 258 3.0 11.0 0.00 0.00 0.00 44 1011.8
20260507193404 52 318 6.0 11.0 0.00 0.00 0.00 44 1011.8
20260507193258 52 241 1.0 11.0 0.00 0.00 0.00 45 1011.4
20260507193242 52 313 3.0 11.0 0.00 0.00 0.00 45 1011.4
20260507193153 53 308 4.0 11.0 0.00 0.00 0.00 44 1011.4
20260507193047 53 315 7.0 13.0 0.00 0.00 0.00 43 1011.4
20260507192941 53 278 2.0 13.0 0.00 0.00 0.00 44 1011.8
20260507192836 53 342 2.0 13.0 0.00 0.00 0.00 45 1011.4
20260507192737 53 270 6.0 13.0 0.00 0.00 0.00 44 1011.4
20260507192730 53 292 5.0 13.0 0.00 0.00 0.00 43 1011.4
20260507192624 53 189 5.0 13.0 0.00 0.00 0.00 43 1011.4
20260507192519 53 260 5.0 13.0 0.00 0.00 0.00 43 1011.4
20260507192413 54 284 2.0 13.0 0.00 0.00 0.00 45 1011.4
20260507192307 54 337 6.0 13.0 0.00 0.00 0.00 43 1011.8
20260507192230 54 252 6.0 13.0 0.00 0.00 0.00 44 1011.4
20260507192202 54 193 6.0 13.0 0.00 0.00 0.00 43 1011.4
20260507192056 53 250 2.0 9.0 0.00 0.00 0.00 45 1011.4
20260507191950 52 321 1.0 9.0 0.00 0.00 0.00 45 1011.8
20260507191845 52 114 1.0 9.0 0.00 0.00 0.00 46 1011.8
20260507191724 52 304 4.0 9.0 0.00 0.00 0.00 47 1011.4
20260507191632 52 290 5.0 9.0 0.00 0.00 0.00 45 1011.4
20260507191525 52 305 2.0 9.0 0.00 0.00 0.00 47 1011.8
20260507191419 52 305 2.0 9.0 0.00 0.00 0.00 48 1011.4
20260507191315 51 86 2.0 9.0 0.00 0.00 0.00 46 1011.4
20260507191209 52 255 4.0 9.0 0.00 0.00 0.00 46 1011.8
20260507191103 52 308 3.0 9.0 0.00 0.00 0.00 45 1011.4
20260507190957 53 296 4.0 8.0 0.00 0.00 0.00 45 1011.8
20260507190852 53 248 4.0 7.0 0.00 0.00 0.00 45 1011.4
20260507190746 53 212 2.0 7.0 0.00 0.00 0.00 45 1011.4
20260507190709 53 278 1.0 7.0 0.00 0.00 0.00 46 1011.4
20260507190652 53 10 1.0 8.0 0.00 0.00 0.00 46 1011.4
20260507190534 53 354 4.0 8.0 0.00 0.00 0.00 45 1011.4
20260507190428 53 307 1.0 8.0 0.00 0.00 0.00 45 1011.4
20260507190324 53 238 4.0 14.0 0.00 0.00 0.00 46 1011.8
20260507190217 53 236 4.0 14.0 0.00 0.00 0.00 46 1011.4
20260507190202 53 250 4.0 14.0 0.00 0.00 0.00 45 1011.4
20260507190116 53 291 5.0 14.0 0.00 0.00 0.00 45 1011.4
20260507190006 54 260 4.0 14.0 0.00 0.00 0.00 43 1011.4
20260507185901 54 227 5.0 14.0 0.00 0.00 0.00 44 1011.4
20260507185755 53 206 2.0 14.0 0.00 0.00 0.00 44 1011.4
20260507185656 53 195 2.0 14.0 0.00 0.00 0.00 44 1011.8
20260507185649 53 171 5.0 14.0 0.00 0.00 0.00 45 1011.8
20260507185543 53 255 2.0 14.0 0.00 0.00 0.00 45 1011.4
20260507185437 53 224 6.0 14.0 0.00 0.00 0.00 44 1011.4
20260507185332 53 261 5.0 11.0 0.00 0.00 0.00 44 1011.4
20260507185226 53 77 1.0 11.0 0.00 0.00 0.00 47 1011.4
20260507185149 52 327 4.0 11.0 0.00 0.00 0.00 46 1011.4
20260507185121 52 280 3.0 11.0 0.00 0.00 0.00 46 1011.4
20260507185015 52 269 2.0 11.0 0.00 0.00 0.00 46 1011.8
20260507184909 52 296 4.0 10.0 0.00 0.00 0.00 46 1011.8
20260507184804 52 0 3.0 10.0 0.00 0.00 0.00 46 1011.8
20260507184643 52 286 5.0 10.0 0.00 0.00 0.00 46 1011.8
20260507184552 52 269 4.0 10.0 0.00 0.00 0.00 47 1011.4
20260507184447 51 271 2.0 10.0 0.00 0.00 0.00 46 1011.8
20260507184341 52 263 4.0 10.0 0.00 0.00 0.00 46 1011.8
20260507184235 52 261 8.0 10.0 0.00 0.00 0.00 45 1011.4
20260507184136 52 333 8.0 10.0 0.00 0.00 0.00 45 1011.4
20260507184130 52 252 5.0 10.0 0.00 0.00 0.00 45 1011.4
20260507184024 52 236 4.0 10.0 0.00 0.00 0.00 45 1011.4
20260507183918 52 218 3.0 10.0 0.00 0.00 0.00 45 1011.8
20260507183813 53 340 3.0 10.0 0.00 0.00 0.00 45 1011.4
20260507183707 52 255 3.0 10.0 0.00 0.00 0.00 47 1011.4
20260507183630 52 195 2.0 10.0 0.00 0.00 0.00 47 1011.4
20260507183600 52 237 3.0 10.0 0.00 0.00 0.00 46 1011.4
20260507183456 53 54 2.0 10.0 0.00 0.00 0.00 46 1011.4
20260507183350 53 267 4.0 10.0 0.00 0.00 0.00 45 1011.4
20260507183244 53 214 2.0 10.0 0.00 0.00 0.00 46 1011.4
20260507183139 53 280 5.0 11.0 0.00 0.00 0.00 44 1011.4
20260507183122 54 250 1.0 11.0 0.00 0.00 0.00 44 1011.4
20260507183032 54 328 5.0 11.0 0.00 0.00 0.00 44 1011.4
20260507182927 55 260 4.0 11.0 0.00 0.00 0.00 45 1011.4
20260507182822 55 281 8.0 11.0 0.00 0.00 0.00 43 1011.4
20260507182716 55 322 3.0 17.0 0.00 0.00 0.00 45 1011.4
20260507182616 54 252 3.0 17.0 0.00 0.00 0.00 45 1011.4
20260507182610 54 232 2.0 17.0 0.00 0.00 0.00 45 1011.4
20260507182504 54 217 2.0 17.0 0.00 0.00 0.00 45 1011.8
20260507182358 53 133 1.0 17.0 0.00 0.00 0.00 46 1011.8
20260507182252 52 184 6.0 17.0 0.00 0.00 0.00 45 1011.8
20260507182146 52 256 5.0 17.0 0.00 0.00 0.00 45 1011.8
20260507182109 51 229 5.0 17.0 0.00 0.00 0.00 48 1011.8
20260507182041 51 244 5.0 17.0 0.00 0.00 0.00 45 1011.4
20260507181935 51 190 5.0 17.0 0.00 0.00 0.00 46 1011.8
20260507181829 52 216 5.0 17.0 0.00 0.00 0.00 45 1011.8
20260507181725 52 233 7.0 13.0 0.00 0.00 0.00 45 1011.8
20260507181601 52 229 2.0 13.0 0.00 0.00 0.00 48 1011.8
20260507181511 52 278 4.0 13.0 0.00 0.00 0.00 46 1011.8
20260507181406 52 218 7.0 13.0 0.00 0.00 0.00 46 1011.8
20260507181301 53 226 4.0 10.0 0.00 0.00 0.00 46 1011.8
20260507181155 53 229 3.0 10.0 0.00 0.00 0.00 47 1011.8
20260507181050 53 127 4.0 10.0 0.00 0.00 0.00 45 1011.8
20260507180944 52 198 5.0 10.0 0.00 0.00 0.00 46 1011.8
20260507180839 52 193 8.0 10.0 0.00 0.00 0.00 46 1011.8
20260507180746 52 231 8.0 10.0 0.00 0.00 0.00 47 1011.8
20260507180628 52 243 4.0 10.0 0.00 0.00 0.00 46 1011.8
20260507180550 53 235 7.0 10.0 0.00 0.00 0.00 47 1011.8
20260507180521 53 247 6.0 10.0 0.00 0.00 0.00 47 1011.4
20260507180416 53 261 4.0 8.0 0.00 0.00 0.00 46 1011.8
20260507180310 53 249 2.0 8.0 0.00 0.00 0.00 46 1011.8
20260507180204 53 303 7.0 13.0 0.00 0.00 0.00 44 1011.8
20260507180112 53 277 1.0 13.0 0.00 0.00 0.00 46 1011.8
20260507180043 53 329 2.0 13.0 0.00 0.00 0.00 46 1011.8
20260507175952 53 268 1.0 13.0 0.00 0.00 0.00 48 1011.8
20260507175846 52 253 4.0 13.0 0.00 0.00 0.00 46 1011.8
20260507175740 52 245 3.0 13.0 0.00 0.00 0.00 47 1011.8
20260507175634 53 295 2.0 13.0 0.00 0.00 0.00 46 1011.8
20260507175535 53 304 5.0 13.0 0.00 0.00 0.00 45 1011.8
20260507175529 53 271 2.0 13.0 0.00 0.00 0.00 46 1011.8
20260507175423 53 206 2.0 13.0 0.00 0.00 0.00 49 1011.8
20260507175319 53 156 2.0 13.0 0.00 0.00 0.00 47 1011.8
20260507175213 53 243 6.0 9.0 0.00 0.00 0.00 48 1011.8
20260507175106 53 224 1.0 9.0 0.00 0.00 0.00 47 1011.8
20260507175028 53 227 2.0 9.0 0.00 0.00 0.00 47 1011.8
20260507175000 52 191 4.0 9.0 0.00 0.00 0.00 46 1011.8
20260507174855 52 231 6.0 9.0 0.00 0.00 0.00 47 1011.8
20260507174749 52 302 5.0 9.0 0.00 0.00 0.00 47 1011.8
20260507174642 53 271 3.0 9.0 0.00 0.00 0.00 47 1011.8
20260507174521 53 191 0.0 7.0 0.00 0.00 0.00 47 1011.8
20260507174431 53 293 3.0 7.0 0.00 0.00 0.00 46 1011.8
20260507174326 53 325 2.0 8.0 0.00 0.00 0.00 48 1011.8
20260507174220 53 192 4.0 8.0 0.00 0.00 0.00 47 1011.8
20260507174115 53 129 2.0 8.0 0.00 0.00 0.00 48 1011.8
20260507174008 53 312 1.0 8.0 0.00 0.00 0.00 48 1011.8
20260507173904 54 206 4.0 8.0 0.00 0.00 0.00 47 1011.8
20260507173758 54 334 3.0 10.0 0.00 0.00 0.00 46 1011.8
20260507173652 54 353 4.0 10.0 0.00 0.00 0.00 46 1011.8
20260507173545 54 158 1.0 10.0 0.00 0.00 0.00 48 1011.8
20260507173507 54 232 0.0 10.0 0.00 0.00 0.00 47 1011.8
20260507173440 54 233 5.0 10.0 0.00 0.00 0.00 45 1011.8
20260507173333 54 27 5.0 10.0 0.00 0.00 0.00 46 1011.8
20260507173228 54 261 3.0 10.0 0.00 0.00 0.00 48 1012.1
20260507173125 54 240 5.0 10.0 0.00 0.00 0.00 46 1011.8
20260507173019 53 222 4.0 10.0 0.00 0.00 0.00 48 1011.8
20260507173004 53 242 4.0 10.0 0.00 0.00 0.00 47 1011.8
20260507172913 53 301 2.0 10.0 0.00 0.00 0.00 48 1011.8
20260507172808 53 242 8.0 10.0 0.00 0.00 0.00 47 1011.8
20260507172702 54 216 2.0 10.0 0.00 0.00 0.00 47 1011.8
20260507172556 55 253 5.0 10.0 0.00 0.00 0.00 47 1012.1
20260507172458 55 290 4.0 10.0 0.00 0.00 0.00 46 1011.8
20260507172450 55 261 5.0 10.0 0.00 0.00 0.00 45 1011.8
20260507172345 55 302 4.0 10.0 0.00 0.00 0.00 45 1011.8
20260507172240 55 10 1.0 10.0 0.00 0.00 0.00 46 1012.1
20260507172133 55 235 4.0 10.0 0.00 0.00 0.00 45 1012.1
20260507172019 55 247 4.0 10.0 0.00 0.00 0.00 44 1012.1
20260507171951 55 247 4.0 10.0 0.00 0.00 0.00 44 1012.1
20260507171913 55 211 3.0 10.0 0.00 0.00 0.00 45 1012.1
20260507171808 54 202 4.0 10.0 0.00 0.00 0.00 45 1012.1
20260507171702 53 233 4.0 10.0 0.00 0.00 0.00 47 1012.1
20260507171556 53 233 1.0 8.0 0.00 0.00 0.00 48 1011.8
20260507171450 53 304 0.0 8.0 0.00 0.00 0.00 46 1011.8
20260507171345 54 239 4.0 8.0 0.00 0.00 0.00 45 1012.1
20260507171239 54 231 4.0 8.0 0.00 0.00 0.00 48 1012.1
20260507171135 54 305 2.0 8.0 0.00 0.00 0.00 47 1011.8
20260507171029 54 3 4.0 8.0 0.00 0.00 0.00 46 1011.8
20260507170941 54 241 4.0 9.0 0.00 0.00 0.00 46 1011.8
20260507170923 53 294 2.0 9.0 0.00 0.00 0.00 48 1012.1
20260507170818 53 337 3.0 9.0 0.00 0.00 0.00 47 1011.8
20260507170712 53 6 5.0 9.0 0.00 0.00 0.00 48 1011.8
20260507170606 52 243 3.0 9.0 0.00 0.00 0.00 50 1012.1
20260507170501 52 289 2.0 9.0 0.00 0.00 0.00 48 1012.1
20260507170434 52 279 2.0 9.0 0.00 0.00 0.00 48 1012.1
20260507170355 52 298 4.0 9.0 0.00 0.00 0.00 48 1012.1
20260507170249 52 189 4.0 9.0 0.00 0.00 0.00 49 1012.1
20260507170144 52 325 4.0 9.0 0.00 0.00 0.00 49 1012.1
20260507170051 52 287 5.0 9.0 0.00 0.00 0.00 48 1012.1
20260507165932 53 10 6.0 9.0 0.00 0.00 0.00 47 1011.8
20260507165827 53 352 5.0 13.0 0.00 0.00 0.00 48 1012.1
20260507165721 53 243 0.0 13.0 0.00 0.00 0.00 48 1012.1
20260507165615 53 239 1.0 13.0 0.00 0.00 0.00 49 1012.1
20260507165509 52 334 1.0 13.0 0.00 0.00 0.00 48 1011.8
20260507165421 52 22 2.0 13.0 0.00 0.00 0.00 49 1011.8
20260507165404 52 262 0.0 13.0 0.00 0.00 0.00 49 1011.8
20260507165258 53 318 4.0 13.0 0.00 0.00 0.00 48 1011.8
20260507165151 53 263 5.0 13.0 0.00 0.00 0.00 47 1011.8
20260507165047 53 257 2.0 13.0 0.00 0.00 0.00 49 1011.8
20260507164940 53 227 5.0 13.0 0.00 0.00 0.00 47 1012.1
20260507164914 53 218 4.0 11.0 0.00 0.00 0.00 48 1012.1
20260507164835 53 309 3.0 11.0 0.00 0.00 0.00 48 1011.8
20260507164730 52 327 1.0 10.0 0.00 0.00 0.00 50 1011.8
20260507164623 52 245 4.0 10.0 0.00 0.00 0.00 49 1012.1
20260507164517 53 240 7.0 10.0 0.00 0.00 0.00 48 1011.8
20260507164412 54 240 7.0 11.0 0.00 0.00 0.00 48 1011.8
20260507164307 54 265 6.0 11.0 0.00 0.00 0.00 48 1011.8
20260507164159 54 318 4.0 11.0 0.00 0.00 0.00 49 1011.8
20260507164053 54 267 2.0 11.0 0.00 0.00 0.00 47 1011.8
20260507163949 54 248 5.0 11.0 0.00 0.00 0.00 48 1011.8
20260507163900 53 249 1.0 11.0 0.00 0.00 0.00 49 1011.8
20260507163842 53 323 1.0 11.0 0.00 0.00 0.00 47 1011.8
20260507163736 53 229 0.0 11.0 0.00 0.00 0.00 46 1011.8
20260507163630 52 265 5.0 11.0 0.00 0.00 0.00 49 1011.8
20260507163525 53 298 5.0 11.0 0.00 0.00 0.00 48 1012.1
20260507163420 53 204 6.0 9.0 0.00 0.00 0.00 48 1012.1
20260507163353 53 214 4.0 9.0 0.00 0.00 0.00 49 1012.1
20260507163314 53 288 6.0 9.0 0.00 0.00 0.00 47 1012.1
20260507163209 52 182 1.0 9.0 0.00 0.00 0.00 49 1012.1
20260507163103 52 247 2.0 9.0 0.00 0.00 0.00 49 1012.1
20260507162958 52 328 2.0 9.0 0.00 0.00 0.00 48 1012.1
20260507162851 52 316 6.0 9.0 0.00 0.00 0.00 48 1012.1
20260507162746 52 301 2.0 9.0 0.00 0.00 0.00 48 1012.1
20260507162641 53 277 4.0 9.0 0.00 0.00 0.00 48 1012.1
20260507162535 53 259 5.0 9.0 0.00 0.00 0.00 47 1012.1
20260507162429 53 306 3.0 9.0 0.00 0.00 0.00 47 1012.1
20260507162341 54 227 5.0 11.0 0.00 0.00 0.00 47 1012.1
20260507162324 54 247 4.0 11.0 0.00 0.00 0.00 46 1012.1
20260507162218 55 268 4.0 11.0 0.00 0.00 0.00 46 1011.8
20260507162110 55 303 4.0 11.0 0.00 0.00 0.00 44 1012.1
20260507162004 54 327 2.0 11.0 0.00 0.00 0.00 47 1012.1
20260507161858 53 329 5.0 14.0 0.00 0.00 0.00 46 1012.1
20260507161833 53 352 4.0 14.0 0.00 0.00 0.00 47 1012.1
20260507161752 53 110 0.0 14.0 0.00 0.00 0.00 46 1012.1
20260507161646 53 171 5.0 14.0 0.00 0.00 0.00 46 1012.1
20260507161542 55 229 4.0 14.0 0.00 0.00 0.00 46 1011.8
20260507161436 55 218 9.0 14.0 0.00 0.00 0.00 44 1011.8
20260507161331 55 87 2.0 14.0 0.00 0.00 0.00 45 1011.8
20260507161226 55 241 5.0 14.0 0.00 0.00 0.00 44 1011.8
20260507161120 54 256 7.0 14.0 0.00 0.00 0.00 47 1012.1
20260507161014 53 187 3.0 14.0 0.00 0.00 0.00 47 1012.1
20260507160908 53 233 7.0 11.0 0.00 0.00 0.00 44 1012.1
20260507160819 53 249 3.0 10.0 0.00 0.00 0.00 46 1012.1
20260507160802 53 241 5.0 10.0 0.00 0.00 0.00 49 1012.1
20260507160657 53 272 2.0 10.0 0.00 0.00 0.00 44 1012.1
20260507160551 52 195 5.0 10.0 0.00 0.00 0.00 47 1012.1
20260507160445 51 250 6.0 10.0 0.00 0.00 0.00 46 1012.1
20260507160339 51 278 5.0 9.0 0.00 0.00 0.00 46 1012.1
20260507160313 51 220 4.0 9.0 0.00 0.00 0.00 46 1012.1
20260507160232 51 261 6.0 9.0 0.00 0.00 0.00 46 1012.1
20260507160127 52 258 7.0 9.0 0.00 0.00 0.00 45 1012.4
20260507160021 52 248 7.0 9.0 0.00 0.00 0.00 45 1012.4
20260507155915 52 246 0.0 8.0 0.00 0.00 0.00 47 1012.4
20260507155810 52 312 2.0 8.0 0.00 0.00 0.00 46 1012.4
20260507155704 52 263 0.0 8.0 0.00 0.00 0.00 46 1012.1
20260507155558 53 264 4.0 8.0 0.00 0.00 0.00 47 1012.1
20260507155453 53 15 4.0 13.0 0.00 0.00 0.00 48 1012.1
20260507155346 52 138 3.0 13.0 0.00 0.00 0.00 48 1012.1
20260507155258 52 262 0.0 13.0 0.00 0.00 0.00 48 1012.1
20260507155241 52 262 0.0 13.0 0.00 0.00 0.00 48 1011.8
20260507155135 52 25 1.0 13.0 0.00 0.00 0.00 48 1012.1
20260507155029 52 242 4.0 13.0 0.00 0.00 0.00 46 1012.1
20260507154924 52 341 1.0 13.0 0.00 0.00 0.00 47 1012.1
20260507154818 51 282 4.0 13.0 0.00 0.00 0.00 49 1011.8
20260507154752 51 251 4.0 13.0 0.00 0.00 0.00 47 1011.8
20260507154713 51 174 0.0 13.0 0.00 0.00 0.00 48 1012.1
20260507154607 52 235 11.0 13.0 0.00 0.00 0.00 47 1012.1
20260507154501 52 280 4.0 11.0 0.00 0.00 0.00 48 1012.1
20260507154355 52 295 6.0 11.0 0.00 0.00 0.00 47 1012.1
20260507154249 52 354 2.0 11.0 0.00 0.00 0.00 49 1012.1
20260507154144 52 217 0.0 11.0 0.00 0.00 0.00 48 1012.1
20260507154038 52 278 4.0 9.0 0.00 0.00 0.00 47 1012.4
20260507154015 53 329 1.0 9.0 0.00 0.00 0.00 46 1012.1
20260507153932 53 329 1.0 9.0 0.00 0.00 0.00 46 1012.1
20260507153827 53 60 5.0 14.0 0.00 0.00 0.00 46 1012.1
20260507153738 53 324 4.0 14.0 0.00 0.00 0.00 46 1012.1
20260507153721 54 315 4.0 14.0 0.00 0.00 0.00 46 1012.1
20260507153632 53 317 2.0 14.0 0.00 0.00 0.00
20260507153615 54 298 5.0 14.0 0.00 0.00 0.00 45 1012.1
20260507153510 54 242 4.0 14.0 0.00 0.00 0.00 48 1012.4
20260507153455 53 245 1.0 14.0 0.00 0.00 0.00 47 1012.1
20260507153424 53 261 5.0 14.0 0.00 0.00 0.00 45 1012.1
20260507153404 53 317 2.0 14.0 0.00 0.00 0.00 47 1012.1
20260507153347 53 220 5.0 14.0 0.00 0.00 0.00 0.1
20260507153258 53 245 1.0 14.0 0.00 0.00 0.00 47 1012.1
20260507153232 53 19 0.0 14.0 0.00 0.00 0.00 47 1012.1
20260507153153 53 261 5.0 14.0 0.00 0.00 0.00 45 1012.1
20260507153131 54 259 3.0 11.0 0.00 0.00 0.00 46 1012.1
20260507153047 53 220 5.0 14.0 0.00 0.00 0.00 47 1012.1
20260507153031 54 323 2.0 9.0 0.00 0.00 0.00 48 1012.1
20260507152941 53 296 6.0 14.0 0.00 0.00 0.00 47 1012.1
20260507152836 54 259 3.0 11.0 0.00 0.00 0.00 46 1012.1
20260507152730 54 323 2.0 9.0 0.00 0.00 0.00 48 1012.1
20260507152623 54 177 7.0 9.0 0.00 0.00 0.00 46 1012.1
20260507152602 52 229 4.0 7.0 0.00 0.00 0.00 50 1011.8
20260507152517 54 207 3.0 8.0 0.00 0.00 0.00 44 1012.1
20260507152411 53 145 2.0 7.0 0.00 0.00 0.00 49 1012.1
20260507152307 53 233 2.0 7.0 0.00 0.00 0.00 48 1012.1
20260507152218 53 133 2.0 7.0 0.00 0.00 0.00 47 1012.1
20260507152201 53 133 2.0 7.0 0.00 0.00 0.00 47 1012.1
20260507152054 53 223 4.0 7.0 0.00 0.00 0.00 48 1012.1
20260507151948 53 227 2.0 7.0 0.00 0.00 0.00 47 1012.1
20260507151843 52 229 4.0 7.0 0.00 0.00 0.00 50 1011.8
20260507151737 52 218 4.0 7.0 0.00 0.00 0.00 50 1012.1
20260507151711 52 266 4.0 7.0 0.00 0.00 0.00 49 1012.1
20260507151632 52 107 4.0 7.0 0.00 0.00 0.00 48 1012.1
20260507151526 52 254 4.0 7.0 0.00 0.00 0.00 49 1011.8
20260507151420 52 248 1.0 7.0 0.00 0.00 0.00 49 1012.1
20260507151314 51 232 4.0 7.0 0.00 0.00 0.00 49 1012.1
20260507151208 52 126 2.0 7.0 0.00 0.00 0.00 50 1012.1
20260507151104 52 310 4.0 6.0 0.00 0.00 0.00 48 1012.4
20260507150958 53 319 4.0 6.0 0.00 0.00 0.00 49 1012.1
20260507150852 53 167 0.0 6.0 0.00 0.00 0.00 47 1012.1
20260507150747 53 241 1.0 6.0 0.00 0.00 0.00 49 1012.1
20260507150659 53 354 1.0 6.0 0.00 0.00 0.00 49 1012.1
20260507150641 53 149 2.0 6.0 0.00 0.00 0.00 49 1012.1
20260507150535 53 249 2.0 6.0 0.00 0.00 0.00 48 1012.1
20260507150428 53 245 2.0 6.0 0.00 0.00 0.00 50 1012.1
20260507150323 53 245 1.0 6.0 0.00 0.00 0.00 49 1012.1
20260507150217 53 78 0.0 6.0 0.00 0.00 0.00 49 1012.1
20260507150150 53 114 1.0 6.0 0.00 0.00 0.00 49 1012.1
20260507150114 53 336 1.0 6.0 0.00 0.00 0.00 50 1012.1
20260507150006 52 56 1.0 6.0 0.00 0.00 0.00 49 1012.1
20260507145900 52 336 4.0 8.0 0.00 0.00 0.00 49 1012.1
20260507145754 51 330 0.0 11.0 0.00 0.00 0.00 51 1011.8
20260507145649 52 223 0.0 11.0 0.00 0.00 0.00 49 1011.8
20260507145543 52 196 2.0 11.0 0.00 0.00 0.00 48 1012.1
20260507145438 52 298 3.0 11.0 0.00 0.00 0.00 48 1012.4
20260507145332 52 131 0.0 11.0 0.00 0.00 0.00 49 1012.1
20260507145227 52 256 1.0 11.0 0.00 0.00 0.00 48 1012.1
20260507145122 52 248 2.0 11.0 0.00 0.00 0.00 49 1012.1
20260507145016 52 205 3.0 11.0 0.00 0.00 0.00 49 1011.8
20260507144910 52 208 4.0 11.0 0.00 0.00 0.00 48 1012.4
20260507144804 52 215 3.0 11.0 0.00 0.00 0.00 50 1012.1
20260507144656 52 239 3.0 11.0 0.00 0.00 0.00 50 1012.1
20260507144630 52 111 6.0 11.0 0.00 0.00 0.00 49 1011.8
20260507144551 51 258 2.0 10.0 0.00 0.00 0.00 50 1011.8
20260507144446 51 220 1.0 14.0 0.00 0.00 0.00 50 1012.1
20260507144340 51 200 5.0 14.0 0.00 0.00 0.00 49 1012.1
20260507144235 51 257 5.0 14.0 0.00 0.00 0.00 50 1012.4
20260507144129 51 213 4.0 14.0 0.00 0.00 0.00 52 1012.4
20260507144023 51 247 5.0 14.0 0.00 0.00 0.00 50 1012.4
20260507143918 51 137 2.0 14.0 0.00 0.00 0.00 51 1012.4
20260507143812 51 278 2.0 14.0 0.00 0.00 0.00 49 1012.4
20260507143707 52 245 4.0 14.0 0.00 0.00 0.00 49 1012.1
20260507143618 52 253 6.0 14.0 0.00 0.00 0.00 48 1012.1
20260507143600 53 278 9.0 14.0 0.00 0.00 0.00 47 1012.1
20260507143456 53 221 4.0 9.0 0.00 0.00 0.00 48 1012.1
20260507143349 52 254 2.0 9.0 0.00 0.00 0.00 48 1012.1
20260507143244 52 211 0.0 9.0 0.00 0.00 0.00 50 1012.1
20260507143138 52 17 2.0 9.0 0.00 0.00 0.00 49 1012.1
20260507143112 52 114 1.0 9.0 0.00 0.00 0.00 49 1012.1
20260507143032 52 218 1.0 9.0 0.00 0.00 0.00 49 1012.1
20260507142927 52 245 2.0 9.0 0.00 0.00 0.00 51 1012.1
20260507142821 52 254 0.0 9.0 0.00 0.00 0.00 48 1012.4
20260507142715 52 128 2.0 9.0 0.00 0.00 0.00 48 1012.4
20260507142610 52 238 6.0 13.0 0.00 0.00 0.00 48 1012.1
20260507142504 51 300 2.0 13.0 0.00 0.00 0.00 49 1012.4
20260507142358 52 238 4.0 13.0 0.00 0.00 0.00 48 1012.1
20260507142252 52 255 1.0 13.0 0.00 0.00 0.00 48 1012.1
20260507142147 51 308 0.0 13.0 0.00 0.00 0.00 50 1012.1
20260507142058 51 202 2.0 13.0 0.00 0.00 0.00 52 1012.1
20260507142041 51 332 2.0 13.0 0.00 0.00 0.00 50 1012.4
20260507141935 51 267 5.0 13.0 0.00 0.00 0.00 49 1012.1
20260507141829 51 236 0.0 13.0 0.00 0.00 0.00 49 1012.1
20260507141724 52 229 6.0 13.0 0.00 0.00 0.00 50 1012.4
20260507141618 52 209 4.0 9.0 0.00 0.00 0.00 50 1012.1
20260507141552 52 87 5.0 9.0 0.00 0.00 0.00 50 1012.1
20260507141513 52 239 5.0 9.0 0.00 0.00 0.00 50 1012.4
20260507141407 51 83 0.0 8.0 0.00 0.00 0.00 51 1012.4
20260507141301 51 195 4.0 8.0 0.00 0.00 0.00 49 1012.1
20260507141157 52 245 3.0 8.0 0.00 0.00 0.00 49 1012.4
20260507141051 52 258 3.0 8.0 0.00 0.00 0.00 51 1012.4
20260507140946 53 195 4.0 8.0 0.00 0.00 0.00 49 1012.4
20260507140840 53 243 3.0 8.0 0.00 0.00 0.00 48 1012.4
20260507140735 53 207 2.0 7.0 0.00 0.00 0.00 50 1012.4
20260507140628 52 59 1.0 7.0 0.00 0.00 0.00 51 1012.4
20260507140540 52 328 1.0 9.0 0.00 0.00 0.00 51 1012.4
20260507140523 52 175 0.0 9.0 0.00 0.00 0.00 49 1012.4
20260507140417 52 251 0.0 9.0 0.00 0.00 0.00 49 1012.4
20260507140313 52 247 1.0 10.0 0.00 0.00 0.00 50 1012.4
20260507140205 52 126 0.0 10.0 0.00 0.00 0.00 50 1012.4
20260507140113 51 223 4.0 10.0 0.00 0.00 0.00 49 1012.4
20260507140033 51 165 5.0 10.0 0.00 0.00 0.00 50 1012.4
20260507135954 51 300 0.0 10.0 0.00 0.00 0.00 52 1012.4
20260507135848 50 188 2.0 10.0 0.00 0.00 0.00 52 1012.4
20260507135743 50 114 0.0 10.0 0.00 0.00 0.00 52 1012.4
20260507135637 50 203 4.0 10.0 0.00 0.00 0.00 50 1012.4
20260507135530 50 201 4.0 10.0 0.00 0.00 0.00 51 1012.4
20260507135425 51 195 4.0 10.0 0.00 0.00 0.00 50 1012.4
20260507135319 51 220 6.0 8.0 0.00 0.00 0.00 49 1012.4
20260507135214 51 245 4.0 8.0 0.00 0.00 0.00 49 1012.4
20260507135107 52 186 4.0 8.0 0.00 0.00 0.00 50 1012.8
20260507135018 52 313 4.0 8.0 0.00 0.00 0.00 49 1012.4
20260507135001 52 313 4.0 8.0 0.00 0.00 0.00 49 1012.4
20260507134917 50 183 1.0 6.0 0.00 0.00 0.00 52 1012.4
20260507134912 51 316 0.0 1.0 0.00 0.00 0.00 56 1012.4
20260507134908 48 135 1.0 3.0 0.00 0.00 0.00 61 1012.4
20260507134904 47 264 2.0 3.0 0.00 0.00 0.00 60 1012.4
20260507134900 47 269 1.0 1.0 0.00 0.00 0.00 66 1012.8
20260507134856 51 268 2.0 7.0 0.00 0.00 0.00 51 1012.4
20260507134847 51 249 4.0 4.0 0.00 0.00 0.00 53 1012.4
20260507134842 51 210 0.0 7.0 0.00 0.00 0.00 50 1012.4
20260507134838 51 174 1.0 7.0 0.00 0.00 0.00 51 1012.4
20260507134830 51 227 0.0 7.0 0.00 0.00 0.00 50 1012.4
20260507134822 51 212 2.0 7.0 0.00 0.00 0.00 51 1012.4
20260507134557 51 218 3.0 7.0 0.00 0.00 0.00 50 1012.4
20260507134335 50 231 3.0 7.0 0.00 0.00 0.00 51 1012.4
20260507134331 51 269 2.0 7.0 0.00 0.00 0.00 54 1012.4
20260507134322 50 234 2.0 7.0 0.00 0.00 0.00 52 1012.4
20260507134313 50 255 1.0 7.0 0.00 0.00 0.00 52 1012.8
20260507134303 50 231 3.0 7.0 0.00 0.00 0.00 51 1012.4
20260507134044 51 282 6.0 7.0 0.00 0.00 0.00 50 1012.4
20260507133823 49 316 3.0 6.0 0.00 0.00 0.00 52 1012.4
20260507133819 51 144 1.0 4.0 0.00 0.00 0.00 51 1012.4
20260507133810 51 291 1.0 4.0 0.00 0.00 0.00 51 1012.4
20260507133802 51 295 1.0 4.0 0.00 0.00 0.00 50 1012.4
20260507133540 51 138 2.0 4.0 0.00 0.00 0.00 52 1012.4
20260507133532 51 210 1.0 4.0 0.00 0.00 0.00 50 1012.8
20260507133311 49 181 1.0 4.0 0.00 0.00 0.00 52 1012.1
20260507133307 51 106 0.0 6.0 0.00 0.00 0.00 53 1012.8
20260507133258 51 260 2.0 6.0 0.00 0.00 0.00 52 1012.4
20260507133250 51 215 1.0 6.0 0.00 0.00 0.00 52 1012.4
20260507133024 50 178 1.0 6.0 0.00 0.00 0.00 52 1012.4
20260507132804 50 195 2.0 6.0 0.00 0.00 0.00 54 1012.4
20260507132754 50 248 2.0 4.0 0.00 0.00 0.00 54 1012.4
20260507132751 49 274 2.0 6.0 0.00 0.00 0.00 53 1012.4
20260507132742 49 339 0.0 6.0 0.00 0.00 0.00 53 1012.4
20260507132731 49 316 3.0 6.0 0.00 0.00 0.00 52 1012.4
20260507132508 50 328 3.0 6.0 0.00 0.00 0.00 52 1012.4
20260507132244 49 295 0.0 2.0 0.00 0.00 0.00 57 1012.8
20260507132241 50 24 1.0 4.0 0.00 0.00 0.00 52 1012.4
20260507132232 50 337 2.0 4.0 0.00 0.00 0.00 52 1012.4
20260507132223 51 302 2.0 4.0 0.00 0.00 0.00 51 1012.4
20260507131957 51 336 4.0 4.0 0.00 0.00 0.00 51 1012.4
20260507131953 51 329 3.0 3.0 0.00 0.00 0.00 52 1012.4
20260507131945 50 180 0.0 3.0 0.00 0.00 0.00 52 1012.4
20260507131725 50 264 1.0 3.0 0.00 0.00 0.00 52 1012.4
20260507131716 49 159 0.0 3.0 0.00 0.00 0.00 52 1012.1
20260507131708 49 168 1.0 4.0 0.00 0.00 0.00 51 1012.4
20260507131446 49 221 2.0 4.0 0.00 0.00 0.00 54 1012.1
20260507131437 49 290 1.0 4.0 0.00 0.00 0.00 53 1012.4
20260507131218 49 243 1.0 4.0 0.00 0.00 0.00 53 1012.4
20260507131209 49 279 1.0 4.0 0.00 0.00 0.00 53 1012.4
20260507130942 49 249 1.0 4.0 0.00 0.00 0.00 54 1012.4
20260507130934 49 275 0.0 4.0 0.00 0.00 0.00 53 1012.4
20260507130925 49 269 0.0 4.0 0.00 0.00 0.00 52 1012.4
20260507130702 49 226 3.0 4.0 0.00 0.00 0.00 54 1012.4
20260507130653 50 296 2.0 4.0 0.00 0.00 0.00 53 1012.4
20260507130429 50 249 2.0 4.0 0.00 0.00 0.00 56 1012.4
20260507130421 50 216 1.0 4.0 0.00 0.00 0.00 52 1012.4
20260507130148 51 179 2.0 3.0 0.00 0.00 0.00 54 1012.4
20260507130140 51 286 2.0 3.0 0.00 0.00 0.00 56 1012.4
20260507130131 51 210 1.0 2.0 0.00 0.00 0.00 55 1012.4
20260507125909 50 327 0.0 1.0 0.00 0.00 0.00 56 1012.4
20260507125900 50 328 0.0 1.0 0.00 0.00 0.00 57 1012.4
20260507125642 49 326 0.0 1.0 0.00 0.00 0.00 58 1012.4
20260507125633 49 298 0.0 1.0 0.00 0.00 0.00 58 1012.8
20260507125623 49 295 0.0 2.0 0.00 0.00 0.00 57 1012.8
20260507125402 49 272 0.0 3.0 0.00 0.00 0.00 56 1012.4
20260507125353 49 155 0.0 3.0 0.00 0.00 0.00 58 1012.4
20260507125131 48 152 0.0 3.0 0.00 0.00 0.00 61 1012.4
20260507125123 48 134 0.0 3.0 0.00 0.00 0.00 61 1012.4
20260507124858 48 135 1.0 3.0 0.00 0.00 0.00 61 1012.4
20260507124850 47 177 0.0 3.0 0.00 0.00 0.00 61 1012.8
20260507124841 47 181 0.0 3.0 0.00 0.00 0.00 61 1012.8